| time (UTC) | temp F | wind direction | speed MPH | gust MPH | rain 1hr in | rain 24hr in | rain mn in | humidity % | barometer mb |
| 20260509165829 | 64 | 219 | 9.0 | 19.0 | 0.00 | 0.00 | 0.00 | 71 | 1004.5 |
| 20260509165629 | 64 | 223 | 7.0 | 21.0 | 0.00 | 0.00 | 0.00 | 71 | 1004.5 |
| 20260509165429 | 65 | 225 | 7.0 | 21.0 | 0.00 | 0.00 | 0.00 | 70 | 1004.6 |
| 20260509165228 | 65 | 215 | 8.0 | 21.0 | 0.00 | 0.00 | 0.00 | 70 | 1004.6 |
| 20260509165028 | 65 | 222 | 9.0 | 21.0 | 0.00 | 0.00 | 0.00 | 70 | 1004.6 |
| 20260509164828 | 65 | 222 | 9.0 | 21.0 | 0.00 | 0.00 | 0.00 | 70 | 1004.6 |
| 20260509164627 | 65 | 217 | 8.0 | 21.0 | 0.00 | 0.00 | 0.00 | 70 | 1004.4 |
| 20260509164427 | 65 | 205 | 9.0 | 19.0 | 0.00 | 0.00 | 0.00 | 71 | 1004.5 |
| 20260509164227 | 65 | 214 | 11.0 | 19.0 | 0.00 | 0.00 | 0.00 | 70 | 1004.6 |
| 20260509164027 | 65 | 220 | 7.0 | 18.0 | 0.00 | 0.00 | 0.00 | 70 | 1004.6 |
| 20260509163826 | 65 | 217 | 7.0 | 16.0 | 0.00 | 0.00 | 0.00 | 69 | 1004.5 |
| 20260509163626 | 65 | 206 | 7.0 | 16.0 | 0.00 | 0.00 | 0.00 | 70 | 1004.7 |
| 20260509163426 | 65 | 197 | 8.0 | 18.0 | 0.00 | 0.00 | 0.00 | 71 | 1004.6 |
| 20260509163225 | 65 | 208 | 8.0 | 19.0 | 0.00 | 0.00 | 0.00 | 70 | 1004.7 |
| 20260509163025 | 64 | 213 | 8.0 | 19.0 | 0.00 | 0.00 | 0.00 | 71 | 1004.7 |
| 20260509162825 | 64 | 213 | 8.0 | 19.0 | 0.00 | 0.00 | 0.00 | 72 | 1004.6 |
| 20260509162624 | 64 | 212 | 9.0 | 19.0 | 0.00 | 0.00 | 0.00 | 71 | 1004.5 |
| 20260509162424 | 64 | 213 | 8.0 | 17.0 | 0.00 | 0.00 | 0.00 | 71 | 1004.4 |
| 20260509162224 | 65 | 224 | 7.0 | 17.0 | 0.00 | 0.00 | 0.00 | 70 | 1004.4 |
| 20260509162024 | 65 | 233 | 6.0 | 17.0 | 0.00 | 0.00 | 0.00 | 70 | 1004.4 |
| 20260509161823 | 65 | 222 | 6.0 | 17.0 | 0.00 | 0.00 | 0.00 | 70 | 1004.4 |
| 20260509161623 | 65 | 212 | 6.0 | 15.0 | 0.00 | 0.00 | 0.00 | 71 | 1004.6 |
| 20260509161423 | 64 | 227 | 7.0 | 16.0 | 0.00 | 0.00 | 0.00 | 71 | 1004.7 |
| 20260509161222 | 64 | 232 | 6.0 | 16.0 | 0.00 | 0.00 | 0.00 | 71 | 1004.6 |
| 20260509161022 | 64 | 230 | 6.0 | 16.0 | 0.00 | 0.00 | 0.00 | 70 | 1004.6 |
| 20260509160822 | 64 | 218 | 7.0 | 16.0 | 0.00 | 0.00 | 0.00 | 70 | 1004.6 |
| 20260509160621 | 64 | 218 | 5.0 | 14.0 | 0.00 | 0.00 | 0.00 | 71 | 1004.7 |
| 20260509160421 | 64 | 220 | 6.0 | 14.0 | 0.00 | 0.00 | 0.00 | 71 | 1004.6 |
| 20260509160221 | 64 | 230 | 6.0 | 13.0 | 0.00 | 0.00 | 0.00 | 71 | 1004.5 |
| 20260509160021 | 64 | 213 | 6.0 | 15.0 | 0.00 | 0.00 | 0.00 | 71 | 1004.5 |
| 20260509155820 | 64 | 229 | 4.0 | 15.0 | 0.00 | 0.00 | 0.00 | 72 | 1004.6 |
| 20260509155620 | 63 | 221 | 4.0 | 15.0 | 0.00 | 0.00 | 0.00 | 73 | 1004.5 |
| 20260509155420 | 63 | 213 | 4.0 | 15.0 | 0.00 | 0.00 | 0.00 | 72 | 1004.7 |
| 20260509155219 | 63 | 213 | 6.0 | 15.0 | 0.00 | 0.00 | 0.00 | 71 | 1004.7 |
| 20260509155019 | 64 | 217 | 5.0 | 14.0 | 0.00 | 0.00 | 0.00 | 71 | 1004.8 |
| 20260509154819 | 64 | 219 | 5.0 | 14.0 | 0.00 | 0.00 | 0.00 | 73 | 1004.8 |
| 20260509154618 | 63 | 225 | 5.0 | 14.0 | 0.00 | 0.00 | 0.00 | 73 | 1004.8 |
| 20260509154419 | 63 | 227 | 5.0 | 14.0 | 0.00 | 0.00 | 0.00 | 73 | 1004.8 |
| 20260509154218 | 63 | 228 | 4.0 | 14.0 | 0.00 | 0.00 | 0.00 | 72 | 1004.9 |
| 20260509154018 | 63 | 222 | 5.0 | 14.0 | 0.00 | 0.00 | 0.00 | 72 | 1005.0 |
| 20260509153817 | 63 | 213 | 5.0 | 14.0 | 0.00 | 0.00 | 0.00 | 72 | 1005.1 |
| 20260509153617 | 63 | 214 | 5.0 | 10.0 | 0.00 | 0.00 | 0.00 | 72 | 1005.1 |
| 20260509153417 | 63 | 213 | 5.0 | 15.0 | 0.00 | 0.00 | 0.00 | 73 | 1005.2 |
| 20260509153216 | 63 | 208 | 3.0 | 15.0 | 0.00 | 0.00 | 0.00 | 73 | 1005.2 |
| 20260509153016 | 63 | 216 | 3.0 | 15.0 | 0.00 | 0.00 | 0.00 | 74 | 1005.2 |
| 20260509152816 | 62 | 217 | 4.0 | 15.0 | 0.00 | 0.00 | 0.00 | 74 | 1005.2 |
| 20260509152615 | 62 | 224 | 6.0 | 15.0 | 0.00 | 0.00 | 0.00 | 74 | 1005.3 |
| 20260509152415 | 62 | 227 | 6.0 | 14.0 | 0.00 | 0.00 | 0.00 | 75 | 1005.3 |
| 20260509152215 | 62 | 226 | 7.0 | 14.0 | 0.00 | 0.00 | 0.00 | 75 | 1005.4 |
| 20260509152015 | 61 | 221 | 7.0 | 18.0 | 0.00 | 0.00 | 0.00 | 75 | 1005.4 |
| 20260509151814 | 61 | 213 | 8.0 | 18.0 | 0.00 | 0.00 | 0.00 | 75 | 1005.4 |
| 20260509151614 | 61 | 209 | 7.0 | 18.0 | 0.00 | 0.00 | 0.00 | 76 | 1005.4 |
| 20260509151414 | 60 | 199 | 5.0 | 18.0 | 0.00 | 0.00 | 0.00 | 77 | 1005.3 |
| 20260509151213 | 60 | 218 | 10.0 | 18.0 | 0.00 | 0.00 | 0.00 | 77 | 1005.4 |
| 20260509151013 | 60 | 219 | 8.0 | 16.0 | 0.00 | 0.00 | 0.00 | 78 | 1005.3 |
| 20260509150813 | 60 | 210 | 8.0 | 14.0 | 0.00 | 0.00 | 0.00 | 77 | 1005.4 |
| 20260509150612 | 60 | 214 | 7.0 | 13.0 | 0.00 | 0.00 | 0.00 | 78 | 1005.4 |
| 20260509150412 | 60 | 211 | 4.0 | 13.0 | 0.00 | 0.00 | 0.00 | 78 | 1005.3 |
| 20260509150212 | 60 | 212 | 5.0 | 13.0 | 0.00 | 0.00 | 0.00 | 78 | 1005.3 |
| 20260509150012 | 60 | 200 | 7.0 | 13.0 | 0.00 | 0.00 | 0.00 | 78 | 1005.4 |
| 20260509145811 | 60 | 199 | 5.0 | 13.0 | 0.00 | 0.00 | 0.00 | 77 | 1005.2 |
| 20260509145611 | 60 | 204 | 5.0 | 16.0 | 0.00 | 0.00 | 0.00 | 78 | 1005.3 |
| 20260509145411 | 60 | 211 | 3.0 | 16.0 | 0.00 | 0.00 | 0.00 | 79 | 1005.2 |
| 20260509145210 | 60 | 209 | 6.0 | 16.0 | 0.00 | 0.00 | 0.00 | 80 | 1005.2 |
| 20260509145010 | 60 | 222 | 6.0 | 16.0 | 0.00 | 0.00 | 0.00 | 79 | 1005.2 |
| 20260509144810 | 60 | 208 | 7.0 | 16.0 | 0.00 | 0.00 | 0.00 | 79 | 1005.2 |
| 20260509144609 | 60 | 219 | 6.0 | 12.0 | 0.00 | 0.00 | 0.00 | 79 | 1005.2 |
| 20260509144409 | 60 | 226 | 5.0 | 13.0 | 0.00 | 0.00 | 0.00 | 81 | 1005.2 |
| 20260509144209 | 60 | 212 | 4.0 | 14.0 | 0.00 | 0.00 | 0.00 | 80 | 1005.3 |
| 20260509144008 | 60 | 224 | 4.0 | 14.0 | 0.00 | 0.00 | 0.00 | 81 | 1005.4 |
| 20260509143808 | 60 | 219 | 4.0 | 14.0 | 0.00 | 0.00 | 0.00 | 81 | 1005.4 |
| 20260509143608 | 59 | 224 | 5.0 | 15.0 | 0.00 | 0.00 | 0.00 | 81 | 1005.4 |
| 20260509143408 | 59 | 224 | 4.0 | 15.0 | 0.00 | 0.00 | 0.00 | 81 | 1005.4 |
| 20260509143207 | 59 | 219 | 7.0 | 15.0 | 0.00 | 0.00 | 0.00 | 81 | 1005.4 |
| 20260509143007 | 59 | 216 | 7.0 | 15.0 | 0.00 | 0.00 | 0.00 | 80 | 1005.5 |
| 20260509142807 | 60 | 215 | 6.0 | 15.0 | 0.00 | 0.00 | 0.00 | 80 | 1005.5 |
| 20260509142606 | 60 | 214 | 5.0 | 13.0 | 0.00 | 0.00 | 0.00 | 81 | 1005.5 |
| 20260509142406 | 60 | 219 | 4.0 | 13.0 | 0.00 | 0.00 | 0.00 | 81 | 1005.5 |
| 20260509142206 | 59 | 221 | 5.0 | 11.0 | 0.00 | 0.00 | 0.00 | 82 | 1005.5 |
| 20260509142005 | 59 | 236 | 4.0 | 12.0 | 0.00 | 0.00 | 0.00 | 82 | 1005.5 |
| 20260509141805 | 59 | 219 | 5.0 | 12.0 | 0.00 | 0.00 | 0.00 | 83 | 1005.5 |
| 20260509141605 | 58 | 211 | 5.0 | 12.0 | 0.00 | 0.00 | 0.00 | 83 | 1005.5 |
| 20260509141405 | 58 | 217 | 6.0 | 13.0 | 0.00 | 0.00 | 0.00 | 83 | 1005.5 |
| 20260509141204 | 58 | 212 | 5.0 | 13.0 | 0.00 | 0.00 | 0.00 | 84 | 1005.5 |
| 20260509141004 | 58 | 217 | 5.0 | 13.0 | 0.00 | 0.00 | 0.00 | 84 | 1005.5 |
| 20260509140804 | 58 | 206 | 8.0 | 13.0 | 0.00 | 0.00 | 0.00 | 84 | 1005.6 |
| 20260509140603 | 58 | 217 | 6.0 | 12.0 | 0.00 | 0.00 | 0.00 | 84 | 1005.5 |
| 20260509140403 | 58 | 226 | 5.0 | 12.0 | 0.00 | 0.00 | 0.00 | 85 | 1005.6 |
| 20260509140203 | 58 | 215 | 5.0 | 18.0 | 0.00 | 0.00 | 0.00 | 86 | 1005.6 |
| 20260509140003 | 57 | 215 | 4.0 | 18.0 | 0.00 | 0.00 | 0.00 | 87 | 1005.6 |
| 20260509135802 | 57 | 221 | 4.0 | 18.0 | 0.00 | 0.00 | 0.00 | 88 | 1005.7 |
| 20260509135602 | 56 | 217 | 6.0 | 18.0 | 0.00 | 0.00 | 0.00 | 88 | 1005.7 |
| 20260509135402 | 56 | 215 | 5.0 | 18.0 | 0.00 | 0.00 | 0.00 | 88 | 1005.7 |
| 20260509135201 | 56 | 224 | 4.0 | 16.0 | 0.00 | 0.00 | 0.00 | 89 | 1005.7 |
| 20260509135001 | 55 | 208 | 5.0 | 16.0 | 0.00 | 0.00 | 0.00 | 90 | 1005.7 |
| 20260509134801 | 55 | 219 | 5.0 | 16.0 | 0.00 | 0.00 | 0.00 | 90 | 1005.8 |
| 20260509134600 | 55 | 217 | 5.0 | 16.0 | 0.00 | 0.00 | 0.00 | 90 | 1005.8 |
| 20260509134400 | 55 | 220 | 5.0 | 16.0 | 0.00 | 0.00 | 0.00 | 90 | 1005.8 |
| 20260509134200 | 55 | 230 | 3.0 | 11.0 | 0.00 | 0.00 | 0.00 | 91 | 1005.9 |
| 20260509133959 | 54 | 227 | 2.0 | 14.0 | 0.00 | 0.00 | 0.00 | 92 | 1005.9 |
| 20260509133759 | 54 | 220 | 3.0 | 14.0 | 0.00 | 0.00 | 0.00 | 92 | 1006.0 |
| 20260509133559 | 54 | 228 | 5.0 | 14.0 | 0.00 | 0.00 | 0.00 | 92 | 1006.1 |
| 20260509133359 | 54 | 214 | 7.0 | 14.0 | 0.00 | 0.00 | 0.00 | 92 | 1006.0 |
| 20260509133158 | 54 | 215 | 6.0 | 14.0 | 0.00 | 0.00 | 0.00 | 92 | 1006.0 |
| 20260509132958 | 54 | 226 | 4.0 | 11.0 | 0.00 | 0.00 | 0.00 | 92 | 1006.0 |
| 20260509132758 | 54 | 219 | 5.0 | 11.0 | 0.00 | 0.00 | 0.00 | 92 | 1006.0 |
| 20260509132557 | 54 | 220 | 3.0 | 11.0 | 0.00 | 0.00 | 0.00 | 92 | 1006.1 |
| 20260509132357 | 54 | 224 | 4.0 | 10.0 | 0.00 | 0.00 | 0.00 | 92 | 1006.1 |
| 20260509132157 | 53 | 224 | 4.0 | 10.0 | 0.00 | 0.00 | 0.00 | 92 | 1006.1 |
| 20260509131956 | 53 | 229 | 3.0 | 11.0 | 0.00 | 0.00 | 0.00 | 92 | 1006.0 |
| 20260509131756 | 53 | 222 | 4.0 | 11.0 | 0.00 | 0.00 | 0.00 | 92 | 1006.0 |
| 20260509131556 | 53 | 207 | 4.0 | 12.0 | 0.00 | 0.00 | 0.00 | 93 | 1006.0 |
| 20260509131356 | 53 | 214 | 5.0 | 12.0 | 0.00 | 0.00 | 0.00 | 93 | 1006.1 |
| 20260509131155 | 53 | 219 | 4.0 | 12.0 | 0.00 | 0.00 | 0.00 | 93 | 1006.1 |
| 20260509130955 | 53 | 217 | 4.0 | 12.0 | 0.00 | 0.00 | 0.00 | 93 | 1006.1 |
| 20260509130755 | 53 | 223 | 4.0 | 12.0 | 0.00 | 0.00 | 0.00 | 93 | 1006.1 |
| 20260509130554 | 53 | 220 | 5.0 | 12.0 | 0.00 | 0.00 | 0.00 | 93 | 1006.1 |
| 20260509130354 | 53 | 214 | 5.0 | 10.0 | 0.00 | 0.00 | 0.00 | 93 | 1006.1 |
| 20260509130154 | 53 | 216 | 2.0 | 12.0 | 0.00 | 0.00 | 0.00 | 94 | 1006.2 |
| 20260509125953 | 53 | 217 | 3.0 | 12.0 | 0.00 | 0.00 | 0.00 | 94 | 1006.1 |
| 20260509125753 | 53 | 213 | 4.0 | 12.0 | 0.00 | 0.00 | 0.00 | 94 | 1006.1 |
| 20260509125553 | 52 | 216 | 3.0 | 12.0 | 0.00 | 0.00 | 0.00 | 94 | 1006.1 |
| 20260509125353 | 52 | 228 | 4.0 | 12.0 | 0.00 | 0.00 | 0.00 | 94 | 1006.1 |
| 20260509125152 | 52 | 220 | 4.0 | 12.0 | 0.00 | 0.00 | 0.00 | 94 | 1006.2 |
| 20260509124952 | 52 | 197 | 3.0 | 7.0 | 0.00 | 0.00 | 0.00 | 94 | 1006.2 |
| 20260509124752 | 52 | 223 | 3.0 | 7.0 | 0.00 | 0.00 | 0.00 | 94 | 1006.3 |
| 20260509124551 | 52 | 248 | 2.0 | 7.0 | 0.00 | 0.00 | 0.00 | 94 | 1006.4 |
| 20260509124351 | 52 | 207 | 2.0 | 7.0 | 0.00 | 0.00 | 0.00 | 94 | 1006.4 |
| 20260509124151 | 52 | 214 | 2.0 | 7.0 | 0.00 | 0.00 | 0.00 | 94 | 1006.4 |
| 20260509123950 | 52 | 208 | 2.0 | 7.0 | 0.00 | 0.00 | 0.00 | 94 | 1006.3 |
| 20260509123750 | 52 | 207 | 3.0 | 7.0 | 0.00 | 0.00 | 0.00 | 94 | 1006.3 |
| 20260509123550 | 52 | 218 | 3.0 | 10.0 | 0.00 | 0.00 | 0.00 | 94 | 1006.3 |
| 20260509123350 | 52 | 212 | 2.0 | 11.0 | 0.00 | 0.00 | 0.00 | 94 | 1006.2 |
| 20260509123149 | 52 | 206 | 1.0 | 11.0 | 0.00 | 0.00 | 0.00 | 94 | 1006.2 |
| 20260509122949 | 52 | 222 | 1.0 | 11.0 | 0.00 | 0.00 | 0.00 | 94 | 1006.2 |
| 20260509122749 | 52 | 189 | 2.0 | 11.0 | 0.00 | 0.00 | 0.00 | 94 | 1006.1 |
| 20260509122548 | 52 | 250 | 2.0 | 11.0 | 0.00 | 0.00 | 0.00 | 94 | 1006.0 |
| 20260509122348 | 52 | 215 | 4.0 | 9.0 | 0.00 | 0.00 | 0.00 | 94 | 1006.1 |
| 20260509122148 | 52 | 214 | 4.0 | 9.0 | 0.00 | 0.00 | 0.00 | 94 | 1006.0 |
| 20260509121947 | 52 | 224 | 3.0 | 7.0 | 0.00 | 0.00 | 0.00 | 95 | 1006.1 |
| 20260509121747 | 52 | 225 | 3.0 | 7.0 | 0.00 | 0.00 | 0.00 | 95 | 1006.0 |
| 20260509121547 | 52 | 222 | 2.0 | 7.0 | 0.00 | 0.00 | 0.00 | 95 | 1006.0 |
| 20260509121347 | 51 | 218 | 3.0 | 7.0 | 0.00 | 0.00 | 0.00 | 95 | 1006.1 |
| 20260509121146 | 51 | 206 | 2.0 | 7.0 | 0.00 | 0.00 | 0.00 | 95 | 1006.1 |
| 20260509120946 | 51 | 214 | 3.0 | 7.0 | 0.00 | 0.00 | 0.00 | 95 | 1006.0 |
| 20260509120746 | 51 | 229 | 3.0 | 7.0 | 0.00 | 0.00 | 0.00 | 95 | 1006.0 |
| 20260509120545 | 51 | 221 | 2.0 | 7.0 | 0.00 | 0.00 | 0.00 | 96 | 1006.1 |
| 20260509120345 | 51 | 217 | 2.0 | 7.0 | 0.00 | 0.00 | 0.00 | 96 | 1006.1 |
| 20260509120145 | 51 | 227 | 2.0 | 7.0 | 0.00 | 0.00 | 0.00 | 96 | 1006.1 |
| 20260509115944 | 51 | 235 | 1.0 | 7.0 | 0.00 | 0.00 | 0.00 | 96 | 1006.2 |
| 20260509115744 | 51 | 235 | 2.0 | 7.0 | 0.00 | 0.00 | 0.00 | 96 | 1006.1 |
| 20260509115544 | 50 | 239 | 2.0 | 7.0 | 0.00 | 0.00 | 0.00 | 96 | 1006.2 |
| 20260509115344 | 50 | 226 | 2.0 | 7.0 | 0.00 | 0.00 | 0.00 | 96 | 1006.2 |
| 20260509115143 | 50 | 230 | 3.0 | 7.0 | 0.00 | 0.00 | 0.00 | 96 | 1006.2 |
| 20260509114943 | 50 | 222 | 3.0 | 7.0 | 0.00 | 0.00 | 0.00 | 96 | 1006.1 |
| 20260509114743 | 50 | 222 | 2.0 | 7.0 | 0.00 | 0.00 | 0.00 | 96 | 1006.1 |
| 20260509114542 | 50 | 221 | 1.0 | 7.0 | 0.00 | 0.00 | 0.00 | 96 | 1006.2 |
| 20260509114342 | 50 | 229 | 2.0 | 8.0 | 0.00 | 0.00 | 0.00 | 96 | 1006.2 |
| 20260509114142 | 50 | 238 | 1.0 | 8.0 | 0.00 | 0.00 | 0.00 | 96 | 1006.2 |
| 20260509113941 | 50 | 227 | 1.0 | 8.0 | 0.00 | 0.00 | 0.00 | 96 | 1006.1 |
| 20260509113741 | 50 | 223 | 2.0 | 8.0 | 0.00 | 0.00 | 0.00 | 96 | 1006.2 |
| 20260509113541 | 50 | 229 | 1.0 | 8.0 | 0.00 | 0.00 | 0.00 | 96 | 1006.1 |
| 20260509113341 | 50 | 234 | 2.0 | 7.0 | 0.00 | 0.00 | 0.00 | 96 | 1006.2 |
| 20260509113140 | 50 | 225 | 2.0 | 7.0 | 0.00 | 0.00 | 0.00 | 96 | 1006.2 |
| 20260509112940 | 49 | 232 | 1.0 | 5.0 | 0.00 | 0.00 | 0.00 | 96 | 1006.2 |
| 20260509112740 | 49 | 243 | 1.0 | 7.0 | 0.00 | 0.00 | 0.00 | 96 | 1006.2 |
| 20260509112539 | 49 | 230 | 2.0 | 7.0 | 0.00 | 0.00 | 0.00 | 96 | 1006.2 |
| 20260509112339 | 49 | 223 | 2.0 | 7.0 | 0.00 | 0.00 | 0.00 | 96 | 1006.2 |
| 20260509112139 | 49 | 226 | 3.0 | 7.0 | 0.00 | 0.00 | 0.00 | 96 | 1006.2 |
| 20260509111938 | 49 | 222 | 3.0 | 7.0 | 0.00 | 0.00 | 0.00 | 96 | 1006.2 |
| 20260509111738 | 49 | 229 | 2.0 | 6.0 | 0.00 | 0.00 | 0.00 | 96 | 1006.2 |
| 20260509111538 | 49 | 228 | 1.0 | 7.0 | 0.00 | 0.00 | 0.00 | 96 | 1006.1 |
| 20260509111337 | 49 | 218 | 3.0 | 8.0 | 0.00 | 0.00 | 0.00 | 96 | 1006.1 |
| 20260509111137 | 49 | 211 | 2.0 | 9.0 | 0.00 | 0.00 | 0.00 | 96 | 1006.1 |
| 20260509110937 | 49 | 203 | 2.0 | 10.0 | 0.00 | 0.00 | 0.00 | 96 | 1006.1 |
| 20260509110737 | 49 | 194 | 3.0 | 10.0 | 0.00 | 0.00 | 0.00 | 96 | 1006.1 |
| 20260509110536 | 49 | 215 | 4.0 | 10.0 | 0.00 | 0.00 | 0.00 | 96 | 1006.0 |
| 20260509110336 | 49 | 206 | 3.0 | 10.0 | 0.00 | 0.00 | 0.00 | 96 | 1006.0 |
| 20260509110136 | 49 | 215 | 3.0 | 10.0 | 0.00 | 0.00 | 0.00 | 96 | 1006.0 |
| 20260509105935 | 49 | 210 | 4.0 | 10.0 | 0.00 | 0.02 | 0.00 | 96 | 1006.0 |
| 20260509105735 | 49 | 219 | 5.0 | 10.0 | 0.00 | 0.02 | 0.00 | 96 | 1005.9 |
| 20260509105535 | 48 | 204 | 3.0 | 8.0 | 0.00 | 0.02 | 0.00 | 96 | 1005.9 |
| 20260509105334 | 48 | 202 | 3.0 | 8.0 | 0.00 | 0.02 | 0.00 | 96 | 1006.0 |
| 20260509105134 | 48 | 210 | 3.0 | 9.0 | 0.00 | 0.02 | 0.00 | 96 | 1005.9 |
| 20260509104934 | 48 | 221 | 3.0 | 9.0 | 0.00 | 0.02 | 0.00 | 96 | 1005.9 |
| 20260509104734 | 48 | 225 | 4.0 | 9.0 | 0.00 | 0.02 | 0.00 | 96 | 1005.8 |
| 20260509104533 | 48 | 218 | 4.0 | 9.0 | 0.00 | 0.02 | 0.00 | 96 | 1005.9 |
| 20260509104333 | 48 | 222 | 4.0 | 9.0 | 0.00 | 0.02 | 0.00 | 96 | 1005.9 |
| 20260509104133 | 48 | 215 | 3.0 | 7.0 | 0.00 | 0.02 | 0.00 | 96 | 1005.9 |
| 20260509103932 | 48 | 218 | 2.0 | 7.0 | 0.00 | 0.02 | 0.00 | 96 | 1005.9 |
| 20260509103732 | 48 | 231 | 2.0 | 7.0 | 0.00 | 0.02 | 0.00 | 96 | 1005.9 |
| 20260509103532 | 48 | 225 | 3.0 | 7.0 | 0.00 | 0.02 | 0.00 | 96 | 1005.9 |
| 20260509103331 | 48 | 212 | 3.0 | 8.0 | 0.00 | 0.02 | 0.00 | 96 | 1005.9 |
| 20260509103131 | 48 | 222 | 3.0 | 8.0 | 0.00 | 0.02 | 0.00 | 96 | 1006.0 |
| 20260509102931 | 48 | 213 | 4.0 | 8.0 | 0.00 | 0.02 | 0.00 | 96 | 1006.0 |
| 20260509102731 | 48 | 217 | 4.0 | 8.0 | 0.00 | 0.02 | 0.00 | 96 | 1005.9 |
| 20260509102530 | 48 | 216 | 4.0 | 8.0 | 0.00 | 0.02 | 0.00 | 96 | 1006.0 |
| 20260509102330 | 48 | 217 | 3.0 | 8.0 | 0.00 | 0.02 | 0.00 | 96 | 1006.1 |
| 20260509102130 | 48 | 215 | 2.0 | 9.0 | 0.00 | 0.02 | 0.00 | 95 | 1006.1 |
| 20260509101929 | 48 | 224 | 3.0 | 9.0 | 0.00 | 0.02 | 0.00 | 95 | 1006.1 |
| 20260509101729 | 48 | 210 | 4.0 | 9.0 | 0.00 | 0.02 | 0.00 | 95 | 1006.2 |
| 20260509101529 | 48 | 211 | 4.0 | 9.0 | 0.00 | 0.02 | 0.00 | 95 | 1006.2 |
| 20260509101328 | 48 | 206 | 4.0 | 9.0 | 0.00 | 0.02 | 0.00 | 95 | 1006.1 |
| 20260509101128 | 48 | 212 | 3.0 | 9.0 | 0.00 | 0.02 | 0.00 | 95 | 1006.1 |
| 20260509100928 | 48 | 220 | 3.0 | 6.0 | 0.00 | 0.02 | 0.00 | 95 | 1006.1 |
| 20260509100728 | 48 | 215 | 3.0 | 9.0 | 0.00 | 0.02 | 0.00 | 95 | 1006.2 |
| 20260509100527 | 48 | 209 | 2.0 | 9.0 | 0.00 | 0.02 | 0.00 | 95 | 1006.2 |
| 20260509100327 | 48 | 235 | 2.0 | 9.0 | 0.00 | 0.02 | 0.00 | 95 | 1006.1 |
| 20260509100127 | 48 | 228 | 4.0 | 9.0 | 0.00 | 0.02 | 0.00 | 95 | 1006.1 |
| 20260509095926 | 48 | 222 | 4.0 | 9.0 | 0.00 | 0.04 | 0.00 | 95 | 1006.1 |
| 20260509095726 | 48 | 218 | 3.0 | 8.0 | 0.00 | 0.04 | 0.00 | 94 | 1006.2 |
| 20260509095526 | 48 | 211 | 4.0 | 9.0 | 0.00 | 0.04 | 0.00 | 94 | 1006.2 |
| 20260509095325 | 48 | 215 | 4.0 | 9.0 | 0.00 | 0.04 | 0.00 | 94 | 1006.3 |
| 20260509095125 | 48 | 209 | 5.0 | 9.0 | 0.00 | 0.04 | 0.00 | 94 | 1006.3 |
| 20260509094925 | 48 | 210 | 5.0 | 9.0 | 0.00 | 0.04 | 0.00 | 94 | 1006.3 |
| 20260509094725 | 48 | 207 | 4.0 | 9.0 | 0.00 | 0.04 | 0.00 | 94 | 1006.3 |
| 20260509094524 | 49 | 206 | 4.0 | 10.0 | 0.00 | 0.04 | 0.00 | 94 | 1006.3 |
| 20260509094324 | 48 | 210 | 3.0 | 15.0 | 0.00 | 0.04 | 0.00 | 94 | 1006.3 |
| 20260509094124 | 48 | 218 | 4.0 | 15.0 | 0.00 | 0.04 | 0.00 | 94 | 1006.3 |
| 20260509093923 | 48 | 222 | 5.0 | 15.0 | 0.00 | 0.04 | 0.00 | 94 | 1006.3 |
| 20260509093723 | 48 | 219 | 4.0 | 15.0 | 0.00 | 0.04 | 0.00 | 94 | 1006.3 |
| 20260509093523 | 48 | 213 | 5.0 | 15.0 | 0.00 | 0.04 | 0.00 | 94 | 1006.2 |
| 20260509093322 | 48 | 214 | 4.0 | 15.0 | 0.00 | 0.04 | 0.00 | 94 | 1006.2 |
| 20260509093122 | 48 | 203 | 5.0 | 11.0 | 0.00 | 0.04 | 0.00 | 94 | 1006.3 |
| 20260509092922 | 48 | 208 | 4.0 | 10.0 | 0.00 | 0.04 | 0.00 | 94 | 1006.2 |
| 20260509092722 | 48 | 206 | 4.0 | 10.0 | 0.00 | 0.04 | 0.00 | 94 | 1006.3 |
| 20260509092521 | 48 | 205 | 5.0 | 10.0 | 0.00 | 0.04 | 0.00 | 94 | 1006.2 |
| 20260509092321 | 48 | 212 | 5.0 | 11.0 | 0.00 | 0.04 | 0.00 | 94 | 1006.3 |
| 20260509092121 | 48 | 227 | 4.0 | 11.0 | 0.00 | 0.04 | 0.00 | 94 | 1006.2 |
| 20260509091920 | 48 | 219 | 3.0 | 11.0 | 0.00 | 0.04 | 0.00 | 94 | 1006.3 |
| 20260509091720 | 48 | 218 | 5.0 | 11.0 | 0.00 | 0.04 | 0.00 | 93 | 1006.2 |
| 20260509091520 | 48 | 217 | 5.0 | 11.0 | 0.00 | 0.04 | 0.00 | 93 | 1006.2 |
| 20260509091319 | 48 | 217 | 4.0 | 10.0 | 0.00 | 0.04 | 0.00 | 93 | 1006.2 |
| 20260509091119 | 48 | 213 | 5.0 | 10.0 | 0.00 | 0.04 | 0.00 | 93 | 1006.3 |
| 20260509090919 | 48 | 227 | 4.0 | 12.0 | 0.00 | 0.04 | 0.00 | 93 | 1006.2 |
| 20260509090719 | 48 | 218 | 4.0 | 13.0 | 0.00 | 0.04 | 0.00 | 93 | 1006.2 |
| 20260509090518 | 48 | 210 | 5.0 | 13.0 | 0.00 | 0.04 | 0.00 | 93 | 1006.3 |
| 20260509090318 | 48 | 204 | 6.0 | 13.0 | 0.00 | 0.04 | 0.00 | 93 | 1006.4 |
| 20260509090118 | 48 | 213 | 6.0 | 13.0 | 0.00 | 0.04 | 0.00 | 93 | 1006.4 |
| 20260509085917 | 48 | 222 | 5.0 | 12.0 | 0.00 | 0.05 | 0.00 | 92 | 1006.4 |
| 20260509085717 | 48 | 221 | 5.0 | 11.0 | 0.00 | 0.05 | 0.00 | 92 | 1006.3 |
| 20260509085517 | 48 | 203 | 5.0 | 11.0 | 0.00 | 0.05 | 0.00 | 92 | 1006.3 |
| 20260509085316 | 48 | 215 | 6.0 | 11.0 | 0.00 | 0.05 | 0.00 | 92 | 1006.4 |
| 20260509085116 | 48 | 214 | 5.0 | 11.0 | 0.00 | 0.05 | 0.00 | 91 | 1006.4 |
| 20260509084916 | 47 | 213 | 4.0 | 10.0 | 0.00 | 0.05 | 0.00 | 91 | 1006.3 |
| 20260509084716 | 47 | 210 | 4.0 | 15.0 | 0.00 | 0.05 | 0.00 | 90 | 1006.4 |
| 20260509084515 | 47 | 217 | 3.0 | 15.0 | 0.00 | 0.05 | 0.00 | 90 | 1006.4 |
| 20260509084315 | 47 | 211 | 4.0 | 15.0 | 0.00 | 0.05 | 0.00 | 90 | 1006.5 |
| 20260509084115 | 47 | 219 | 3.0 | 15.0 | 0.00 | 0.05 | 0.00 | 89 | 1006.6 |
| 20260509083914 | 47 | 220 | 4.0 | 15.0 | 0.00 | 0.05 | 0.00 | 89 | 1006.7 |
| 20260509083714 | 47 | 218 | 3.0 | 12.0 | 0.00 | 0.05 | 0.00 | 89 | 1006.7 |
| 20260509083514 | 47 | 209 | 5.0 | 12.0 | 0.00 | 0.05 | 0.00 | 89 | 1006.7 |
| 20260509083313 | 47 | 200 | 5.0 | 12.0 | 0.00 | 0.05 | 0.00 | 88 | 1006.8 |
| 20260509083113 | 47 | 211 | 5.0 | 12.0 | 0.00 | 0.05 | 0.00 | 88 | 1006.8 |
| 20260509082913 | 47 | 213 | 5.0 | 12.0 | 0.00 | 0.05 | 0.00 | 88 | 1006.7 |
| 20260509082713 | 47 | 203 | 4.0 | 11.0 | 0.00 | 0.05 | 0.00 | 88 | 1006.7 |
| 20260509082512 | 47 | 209 | 5.0 | 11.0 | 0.00 | 0.05 | 0.00 | 87 | 1006.7 |
| 20260509082312 | 47 | 221 | 5.0 | 11.0 | 0.00 | 0.05 | 0.00 | 87 | 1006.7 |
| 20260509082112 | 47 | 210 | 6.0 | 11.0 | 0.00 | 0.05 | 0.00 | 87 | 1006.7 |
| 20260509081911 | 47 | 199 | 6.0 | 11.0 | 0.00 | 0.05 | 0.00 | 87 | 1006.8 |
| 20260509081711 | 47 | 213 | 5.0 | 10.0 | 0.00 | 0.05 | 0.00 | 87 | 1006.7 |
| 20260509081511 | 47 | 215 | 4.0 | 10.0 | 0.00 | 0.05 | 0.00 | 86 | 1006.7 |
| 20260509081310 | 47 | 224 | 4.0 | 10.0 | 0.00 | 0.05 | 0.00 | 86 | 1006.8 |
| 20260509081110 | 47 | 212 | 3.0 | 10.0 | 0.00 | 0.05 | 0.00 | 86 | 1006.9 |
| 20260509080910 | 47 | 210 | 2.0 | 6.0 | 0.00 | 0.05 | 0.00 | 85 | 1006.9 |
| 20260509080710 | 47 | 229 | 2.0 | 10.0 | 0.00 | 0.05 | 0.00 | 84 | 1006.9 |
| 20260509080509 | 47 | 223 | 2.0 | 10.0 | 0.00 | 0.05 | 0.00 | 84 | 1006.9 |
| 20260509080309 | 47 | 202 | 1.0 | 10.0 | 0.00 | 0.05 | 0.00 | 83 | 1006.9 |
| 20260509080109 | 47 | 209 | 2.0 | 10.0 | 0.00 | 0.05 | 0.00 | 83 | 1006.9 |
| 20260509075908 | 47 | 224 | 3.0 | 10.0 | 0.00 | 0.05 | 0.00 | 82 | 1007.0 |
| 20260509075708 | 47 | 220 | 3.0 | 10.0 | 0.00 | 0.05 | 0.00 | 82 | 1007.0 |
| 20260509075508 | 47 | 193 | 2.0 | 7.0 | 0.00 | 0.05 | 0.00 | 82 | 1006.9 |
| 20260509075307 | 47 | 212 | 3.0 | 7.0 | 0.00 | 0.05 | 0.00 | 82 | 1006.9 |
| 20260509075107 | 47 | 201 | 3.0 | 7.0 | 0.00 | 0.05 | 0.00 | 82 | 1006.9 |
| 20260509074907 | 47 | 215 | 4.0 | 10.0 | 0.00 | 0.05 | 0.00 | 82 | 1006.9 |
| 20260509074706 | 47 | 213 | 4.0 | 10.0 | 0.00 | 0.05 | 0.00 | 82 | 1006.9 |
| 20260509074506 | 47 | 210 | 5.0 | 10.0 | 0.00 | 0.05 | 0.00 | 81 | 1006.9 |
| 20260509074306 | 47 | 215 | 5.0 | 10.0 | 0.00 | 0.05 | 0.00 | 81 | 1006.9 |
| 20260509074106 | 47 | 223 | 4.0 | 10.0 | 0.00 | 0.05 | 0.00 | 81 | 1006.9 |
| 20260509073905 | 47 | 213 | 4.0 | 10.0 | 0.00 | 0.05 | 0.00 | 80 | 1006.8 |
| 20260509073705 | 47 | 214 | 4.0 | 10.0 | 0.00 | 0.05 | 0.00 | 80 | 1006.8 |
| 20260509073505 | 47 | 214 | 4.0 | 12.0 | 0.00 | 0.05 | 0.00 | 79 | 1006.8 |
| 20260509073304 | 47 | 217 | 4.0 | 12.0 | 0.00 | 0.05 | 0.00 | 79 | 1006.8 |
| 20260509073104 | 47 | 210 | 4.0 | 12.0 | 0.00 | 0.05 | 0.00 | 79 | 1006.9 |
| 20260509072904 | 47 | 202 | 5.0 | 12.0 | 0.00 | 0.05 | 0.00 | 78 | 1006.9 |
| 20260509072703 | 47 | 215 | 5.0 | 12.0 | 0.00 | 0.05 | 0.00 | 78 | 1007.0 |
| 20260509072503 | 47 | 219 | 5.0 | 11.0 | 0.00 | 0.05 | 0.00 | 78 | 1006.9 |
| 20260509072306 | 47 | 221 | 5.0 | 9.0 | 0.00 | 0.05 | 0.00 | 78 | 1006.9 |
| 20260509072103 | 47 | 217 | 4.0 | 9.0 | 0.00 | 0.05 | 0.00 | 77 | 1006.9 |
| 20260509071902 | 47 | 214 | 4.0 | 8.0 | 0.00 | 0.05 | 0.00 | 77 | 1006.9 |
| 20260509071702 | 47 | 204 | 3.0 | 8.0 | 0.00 | 0.05 | 0.00 | 77 | 1006.9 |
| 20260509071502 | 47 | 213 | 4.0 | 8.0 | 0.00 | 0.05 | 0.00 | 76 | 1007.0 |
| 20260509071301 | 47 | 210 | 4.0 | 8.0 | 0.00 | 0.05 | 0.00 | 76 | 1007.0 |
| 20260509071101 | 47 | 212 | 4.0 | 7.0 | 0.00 | 0.05 | 0.00 | 76 | 1006.9 |
| 20260509070901 | 47 | 214 | 3.0 | 8.0 | 0.00 | 0.05 | 0.00 | 75 | 1006.9 |
| 20260509070700 | 47 | 220 | 3.0 | 8.0 | 0.00 | 0.05 | 0.00 | 75 | 1006.9 |
| 20260509070500 | 47 | 222 | 2.0 | 8.0 | 0.00 | 0.05 | 0.00 | 75 | 1006.9 |
| 20260509070300 | 47 | 227 | 3.0 | 8.0 | 0.00 | 0.05 | 0.00 | 74 | 1006.9 |
| 20260509070100 | 47 | 212 | 4.0 | 8.0 | 0.00 | 0.05 | 0.00 | 74 | 1006.9 |
| 20260509065859 | 47 | 208 | 4.0 | 8.0 | 0.00 | 0.05 | 0.00 | 73 | 1007.0 |
| 20260509065659 | 47 | 218 | 4.0 | 8.0 | 0.00 | 0.05 | 0.00 | 73 | 1006.9 |
| 20260509065459 | 47 | 209 | 3.0 | 12.0 | 0.00 | 0.05 | 0.00 | 72 | 1006.9 |
| 20260509065258 | 47 | 220 | 3.0 | 12.0 | 0.00 | 0.05 | 0.00 | 72 | 1006.9 |
| 20260509065058 | 47 | 222 | 4.0 | 12.0 | 0.00 | 0.05 | 0.00 | 71 | 1007.0 |
| 20260509064858 | 47 | 226 | 4.0 | 12.0 | 0.00 | 0.05 | 0.00 | 71 | 1006.9 |
| 20260509064657 | 47 | 213 | 4.0 | 12.0 | 0.00 | 0.05 | 0.00 | 71 | 1007.0 |
| 20260509064457 | 47 | 217 | 4.0 | 12.0 | 0.00 | 0.05 | 0.00 | 71 | 1007.0 |
| 20260509064257 | 47 | 227 | 3.0 | 9.0 | 0.00 | 0.05 | 0.00 | 71 | 1007.0 |
| 20260509064057 | 47 | 229 | 2.0 | 9.0 | 0.00 | 0.05 | 0.00 | 70 | 1007.0 |
| 20260509063856 | 47 | 229 | 2.0 | 6.0 | 0.00 | 0.05 | 0.00 | 70 | 1007.0 |
| 20260509063656 | 47 | 235 | 2.0 | 4.0 | 0.00 | 0.05 | 0.00 | 70 | 1007.1 |
| 20260509063456 | 47 | 233 | 1.0 | 3.0 | 0.00 | 0.05 | 0.00 | 70 | 1007.1 |
| 20260509063255 | 47 | 234 | 1.0 | 6.0 | 0.00 | 0.05 | 0.00 | 69 | 1007.1 |
| 20260509063055 | 47 | 234 | 0.0 | 7.0 | 0.00 | 0.05 | 0.00 | 69 | 1007.1 |
| 20260509062855 | 47 | 234 | 0.0 | 7.0 | 0.00 | 0.05 | 0.00 | 69 | 1007.1 |
| 20260509062654 | 47 | 231 | 2.0 | 7.0 | 0.00 | 0.05 | 0.00 | 68 | 1007.2 |
| 20260509062454 | 47 | 225 | 2.0 | 7.0 | 0.00 | 0.05 | 0.00 | 68 | 1007.1 |
| 20260509062254 | 47 | 223 | 1.0 | 7.0 | 0.00 | 0.05 | 0.00 | 68 | 1007.2 |
| 20260509062054 | 47 | 215 | 0.0 | 3.0 | 0.00 | 0.05 | 0.00 | 68 | 1007.2 |
| 20260509061853 | 47 | 215 | 0.0 | 3.0 | 0.00 | 0.05 | 0.00 | 68 | 1007.2 |
| 20260509061653 | 47 | 215 | 0.0 | 4.0 | 0.00 | 0.05 | 0.00 | 68 | 1007.3 |
| 20260509061453 | 47 | 217 | 1.0 | 5.0 | 0.00 | 0.05 | 0.00 | 68 | 1007.3 |
| 20260509061252 | 47 | 222 | 0.0 | 5.0 | 0.00 | 0.05 | 0.00 | 68 | 1007.4 |
| 20260509061052 | 48 | 228 | 0.0 | 5.0 | 0.00 | 0.05 | 0.00 | 68 | 1007.5 |
| 20260509060852 | 48 | 229 | 2.0 | 6.0 | 0.00 | 0.05 | 0.00 | 68 | 1007.4 |
| 20260509060651 | 48 | 235 | 1.0 | 6.0 | 0.00 | 0.05 | 0.00 | 68 | 1007.5 |
| 20260509060451 | 48 | 237 | 1.0 | 6.0 | 0.00 | 0.05 | 0.00 | 67 | 1007.6 |
| 20260509060251 | 48 | 229 | 2.0 | 6.0 | 0.00 | 0.05 | 0.00 | 67 | 1007.7 |
| 20260509060051 | 48 | 218 | 1.0 | 5.0 | 0.00 | 0.05 | 0.00 | 67 | 1007.7 |
| 20260509055850 | 48 | 214 | 2.0 | 7.0 | 0.00 | 0.05 | 0.00 | 67 | 1007.8 |
| 20260509055650 | 48 | 219 | 2.0 | 7.0 | 0.00 | 0.05 | 0.00 | 67 | 1007.8 |
| 20260509055450 | 48 | 213 | 2.0 | 7.0 | 0.00 | 0.05 | 0.00 | 67 | 1007.8 |
| 20260509055249 | 48 | 218 | 2.0 | 7.0 | 0.00 | 0.05 | 0.00 | 67 | 1007.9 |
| 20260509055049 | 48 | 222 | 3.0 | 7.0 | 0.00 | 0.05 | 0.00 | 67 | 1007.9 |
| 20260509054849 | 48 | 212 | 2.0 | 7.0 | 0.00 | 0.05 | 0.00 | 67 | 1007.9 |
| 20260509054648 | 48 | 216 | 2.0 | 9.0 | 0.00 | 0.05 | 0.00 | 67 | 1007.9 |
| 20260509054448 | 48 | 231 | 2.0 | 9.0 | 0.00 | 0.05 | 0.00 | 67 | 1007.9 |
| 20260509054248 | 48 | 231 | 2.0 | 9.0 | 0.00 | 0.05 | 0.00 | 67 | 1008.0 |
| 20260509054048 | 48 | 227 | 3.0 | 9.0 | 0.00 | 0.05 | 0.00 | 67 | 1008.0 |
| 20260509053847 | 47 | 222 | 2.0 | 9.0 | 0.00 | 0.05 | 0.00 | 68 | 1008.1 |
| 20260509053647 | 47 | 222 | 2.0 | 6.0 | 0.00 | 0.05 | 0.00 | 68 | 1008.1 |
| 20260509053447 | 47 | 220 | 2.0 | 6.0 | 0.00 | 0.05 | 0.00 | 68 | 1008.2 |
| 20260509053246 | 47 | 220 | 3.0 | 6.0 | 0.00 | 0.05 | 0.00 | 68 | 1008.2 |
| 20260509053046 | 47 | 215 | 2.0 | 7.0 | 0.00 | 0.05 | 0.00 | 68 | 1008.2 |
| 20260509052846 | 47 | 223 | 2.0 | 8.0 | 0.00 | 0.05 | 0.00 | 68 | 1008.2 |
| 20260509052645 | 47 | 221 | 2.0 | 8.0 | 0.00 | 0.05 | 0.00 | 68 | 1008.2 |
| 20260509052445 | 47 | 217 | 3.0 | 8.0 | 0.00 | 0.05 | 0.00 | 69 | 1008.2 |
| 20260509052245 | 47 | 220 | 3.0 | 8.0 | 0.00 | 0.05 | 0.00 | 69 | 1008.3 |
| 20260509052045 | 47 | 211 | 3.0 | 8.0 | 0.00 | 0.05 | 0.00 | 69 | 1008.2 |
| 20260509051844 | 47 | 221 | 3.0 | 8.0 | 0.00 | 0.05 | 0.00 | 70 | 1008.3 |
| 20260509051644 | 46 | 220 | 3.0 | 8.0 | 0.00 | 0.05 | 0.00 | 70 | 1008.3 |
| 20260509051444 | 46 | 214 | 4.0 | 8.0 | 0.00 | 0.05 | 0.00 | 70 | 1008.3 |
| 20260509051243 | 46 | 225 | 3.0 | 8.0 | 0.00 | 0.05 | 0.00 | 71 | 1008.3 |
| 20260509051043 | 46 | 211 | 2.0 | 8.0 | 0.00 | 0.05 | 0.00 | 71 | 1008.4 |
| 20260509050843 | 46 | 219 | 2.0 | 8.0 | 0.00 | 0.05 | 0.00 | 72 | 1008.4 |
| 20260509050642 | 46 | 222 | 3.0 | 8.0 | 0.00 | 0.05 | 0.00 | 72 | 1008.4 |
| 20260509050442 | 46 | 217 | 4.0 | 8.0 | 0.00 | 0.05 | 0.00 | 72 | 1008.4 |
| 20260509050242 | 46 | 226 | 3.0 | 6.0 | 0.00 | 0.05 | 0.00 | 73 | 1008.4 |
| 20260509050041 | 46 | 221 | 3.0 | 6.0 | 0.00 | 0.05 | 0.00 | 73 | 1008.5 |
| 20260509045841 | 46 | 224 | 2.0 | 10.0 | 0.00 | 0.05 | 0.00 | 73 | 1008.4 |
| 20260509045641 | 46 | 229 | 2.0 | 10.0 | 0.00 | 0.05 | 0.00 | 74 | 1008.4 |
| 20260509045441 | 46 | 215 | 2.0 | 10.0 | 0.00 | 0.05 | 0.00 | 74 | 1008.5 |
| 20260509045240 | 46 | 205 | 4.0 | 10.0 | 0.00 | 0.05 | 0.00 | 74 | 1008.5 |
| 20260509045040 | 45 | 220 | 3.0 | 10.0 | 0.00 | 0.05 | 0.00 | 74 | 1008.4 |
| 20260509044840 | 45 | 222 | 3.0 | 7.0 | 0.00 | 0.05 | 0.00 | 75 | 1008.5 |
| 20260509044639 | 45 | 215 | 3.0 | 6.0 | 0.00 | 0.05 | 0.00 | 75 | 1008.4 |
| 20260509044439 | 45 | 217 | 3.0 | 6.0 | 0.00 | 0.05 | 0.00 | 75 | 1008.5 |
| 20260509044239 | 45 | 215 | 4.0 | 6.0 | 0.00 | 0.05 | 0.00 | 75 | 1008.5 |
| 20260509044039 | 45 | 216 | 3.0 | 6.0 | 0.00 | 0.05 | 0.00 | 76 | 1008.5 |
| 20260509043838 | 45 | 207 | 3.0 | 6.0 | 0.00 | 0.05 | 0.00 | 76 | 1008.5 |
| 20260509043638 | 45 | 209 | 3.0 | 6.0 | 0.00 | 0.05 | 0.00 | 76 | 1008.6 |
| 20260509043438 | 45 | 215 | 2.0 | 8.0 | 0.00 | 0.05 | 0.00 | 76 | 1008.6 |
| 20260509043237 | 45 | 234 | 1.0 | 9.0 | 0.00 | 0.05 | 0.00 | 77 | 1008.6 |
| 20260509043037 | 45 | 225 | 3.0 | 10.0 | 0.00 | 0.05 | 0.00 | 77 | 1008.6 |
| 20260509042837 | 45 | 218 | 3.0 | 10.0 | 0.00 | 0.05 | 0.00 | 77 | 1008.6 |
| 20260509042636 | 45 | 219 | 3.0 | 10.0 | 0.00 | 0.05 | 0.00 | 77 | 1008.5 |
| 20260509042436 | 45 | 211 | 4.0 | 10.0 | 0.00 | 0.05 | 0.00 | 77 | 1008.6 |
| 20260509042236 | 45 | 224 | 3.0 | 8.0 | 0.00 | 0.05 | 0.00 | 77 | 1008.7 |
| 20260509042035 | 45 | 214 | 3.0 | 9.0 | 0.00 | 0.05 | 0.00 | 78 | 1008.6 |
| 20260509041835 | 45 | 211 | 4.0 | 9.0 | 0.00 | 0.05 | 0.00 | 78 | 1008.7 |
| 20260509041635 | 45 | 220 | 3.0 | 9.0 | 0.00 | 0.05 | 0.00 | 78 | 1008.7 |
| 20260509041435 | 45 | 220 | 3.0 | 9.0 | 0.00 | 0.05 | 0.00 | 78 | 1008.7 |
| 20260509041234 | 45 | 214 | 4.0 | 9.0 | 0.00 | 0.05 | 0.00 | 78 | 1008.7 |
| 20260509041034 | 45 | 216 | 4.0 | 9.0 | 0.00 | 0.05 | 0.00 | 78 | 1008.8 |
| 20260509040834 | 45 | 213 | 4.0 | 9.0 | 0.00 | 0.05 | 0.00 | 79 | 1008.8 |
| 20260509040633 | 45 | 221 | 3.0 | 9.0 | 0.00 | 0.05 | 0.00 | 79 | 1008.7 |
| 20260509040433 | 45 | 225 | 3.0 | 11.0 | 0.00 | 0.05 | 0.00 | 79 | 1008.8 |
| 20260509040233 | 45 | 224 | 4.0 | 11.0 | 0.00 | 0.05 | 0.00 | 78 | 1008.8 |
| 20260509040032 | 45 | 210 | 5.0 | 11.0 | 0.00 | 0.05 | 0.00 | 79 | 1008.7 |
| 20260509035832 | 45 | 218 | 4.0 | 11.0 | 0.00 | 0.05 | 0.05 | 78 | 1008.8 |
| 20260509035632 | 45 | 216 | 4.0 | 11.0 | 0.00 | 0.05 | 0.05 | 78 | 1008.8 |
| 20260509035432 | 45 | 216 | 4.0 | 7.0 | 0.00 | 0.05 | 0.05 | 79 | 1008.7 |
| 20260509035231 | 45 | 225 | 3.0 | 6.0 | 0.00 | 0.05 | 0.05 | 79 | 1008.7 |
| 20260509035031 | 46 | 223 | 1.0 | 6.0 | 0.00 | 0.05 | 0.05 | 79 | 1008.8 |
| 20260509034831 | 46 | 225 | 2.0 | 5.0 | 0.00 | 0.05 | 0.05 | 79 | 1008.8 |
| 20260509034630 | 46 | 228 | 2.0 | 5.0 | 0.00 | 0.05 | 0.05 | 79 | 1008.8 |
| 20260509034430 | 46 | 238 | 1.0 | 5.0 | 0.00 | 0.05 | 0.05 | 78 | 1008.7 |
| 20260509034230 | 46 | 232 | 2.0 | 5.0 | 0.00 | 0.05 | 0.05 | 78 | 1008.8 |
| 20260509034029 | 46 | 226 | 2.0 | 5.0 | 0.00 | 0.05 | 0.05 | 78 | 1008.8 |
| 20260509033829 | 46 | 226 | 1.0 | 5.0 | 0.00 | 0.05 | 0.05 | 78 | 1008.8 |
| 20260509033629 | 46 | 228 | 1.0 | 5.0 | 0.00 | 0.05 | 0.05 | 78 | 1008.9 |
| 20260509033429 | 46 | 233 | 0.0 | 5.0 | 0.00 | 0.05 | 0.05 | 78 | 1008.9 |
| 20260509033228 | 46 | 231 | 1.0 | 5.0 | 0.00 | 0.05 | 0.05 | 78 | 1008.8 |
| 20260509033028 | 46 | 217 | 1.0 | 5.0 | 0.00 | 0.05 | 0.05 | 78 | 1008.9 |
| 20260509032828 | 46 | 199 | 1.0 | 5.0 | 0.00 | 0.05 | 0.05 | 78 | 1008.8 |
| 20260509032627 | 46 | 223 | 2.0 | 5.0 | 0.00 | 0.05 | 0.05 | 78 | 1008.9 |
| 20260509032427 | 46 | 227 | 2.0 | 5.0 | 0.00 | 0.05 | 0.05 | 78 | 1008.9 |
| 20260509032227 | 46 | 221 | 1.0 | 9.0 | 0.00 | 0.05 | 0.05 | 77 | 1008.9 |
| 20260509032026 | 46 | 225 | 1.0 | 10.0 | 0.00 | 0.05 | 0.05 | 77 | 1009.0 |
| 20260509031826 | 46 | 220 | 2.0 | 10.0 | 0.00 | 0.05 | 0.05 | 77 | 1009.0 |
| 20260509031626 | 46 | 222 | 3.0 | 10.0 | 0.00 | 0.05 | 0.05 | 77 | 1009.1 |
| 20260509031426 | 47 | 220 | 3.0 | 10.0 | 0.00 | 0.05 | 0.05 | 77 | 1009.1 |
| 20260509031225 | 47 | 218 | 2.0 | 10.0 | 0.00 | 0.05 | 0.05 | 76 | 1009.1 |
| 20260509031025 | 47 | 217 | 3.0 | 8.0 | 0.00 | 0.05 | 0.05 | 76 | 1009.1 |
| 20260509030825 | 47 | 219 | 4.0 | 8.0 | 0.00 | 0.05 | 0.05 | 76 | 1009.2 |
| 20260509030624 | 47 | 215 | 3.0 | 6.0 | 0.00 | 0.05 | 0.05 | 76 | 1009.1 |
| 20260509030424 | 47 | 216 | 2.0 | 6.0 | 0.00 | 0.05 | 0.05 | 76 | 1009.2 |
| 20260509030224 | 47 | 224 | 2.0 | 6.0 | 0.00 | 0.05 | 0.05 | 76 | 1009.3 |
| 20260509030023 | 47 | 228 | 1.0 | 6.0 | 0.00 | 0.05 | 0.05 | 76 | 1009.2 |
| 20260509025823 | 47 | 219 | 2.0 | 7.0 | 0.00 | 0.05 | 0.05 | 76 | 1009.2 |
| 20260509025623 | 47 | 218 | 2.0 | 7.0 | 0.00 | 0.05 | 0.05 | 76 | 1009.2 |
| 20260509025423 | 47 | 215 | 2.0 | 7.0 | 0.00 | 0.05 | 0.05 | 76 | 1009.3 |
| 20260509025222 | 47 | 226 | 3.0 | 7.0 | 0.00 | 0.05 | 0.05 | 76 | 1009.2 |
| 20260509025022 | 47 | 223 | 3.0 | 6.0 | 0.00 | 0.05 | 0.05 | 76 | 1009.3 |
| 20260509024822 | 47 | 220 | 2.0 | 7.0 | 0.00 | 0.05 | 0.05 | 75 | 1009.3 |
| 20260509024621 | 47 | 226 | 2.0 | 7.0 | 0.00 | 0.05 | 0.05 | 75 | 1009.3 |
| 20260509024421 | 47 | 211 | 3.0 | 7.0 | 0.00 | 0.05 | 0.05 | 75 | 1009.3 |
| 20260509024221 | 47 | 211 | 3.0 | 8.0 | 0.00 | 0.05 | 0.05 | 75 | 1009.4 |
| 20260509024020 | 47 | 219 | 3.0 | 8.0 | 0.00 | 0.05 | 0.05 | 75 | 1009.4 |
| 20260509023820 | 47 | 219 | 2.0 | 8.0 | 0.00 | 0.05 | 0.05 | 75 | 1009.4 |
| 20260509023620 | 47 | 221 | 3.0 | 8.0 | 0.00 | 0.05 | 0.05 | 75 | 1009.4 |
| 20260509023420 | 47 | 217 | 3.0 | 8.0 | 0.00 | 0.05 | 0.05 | 75 | 1009.4 |
| 20260509023219 | 47 | 218 | 2.0 | 6.0 | 0.00 | 0.05 | 0.05 | 75 | 1009.4 |
| 20260509023019 | 47 | 219 | 3.0 | 6.0 | 0.00 | 0.05 | 0.05 | 75 | 1009.5 |
| 20260509022819 | 47 | 219 | 3.0 | 6.0 | 0.00 | 0.05 | 0.05 | 75 | 1009.5 |
| 20260509022618 | 47 | 218 | 2.0 | 6.0 | 0.00 | 0.05 | 0.05 | 74 | 1009.4 |
| 20260509022418 | 47 | 204 | 2.0 | 6.0 | 0.00 | 0.05 | 0.05 | 74 | 1009.5 |
| 20260509022218 | 47 | 203 | 2.0 | 7.0 | 0.00 | 0.05 | 0.05 | 74 | 1009.5 |
| 20260509022017 | 47 | 229 | 2.0 | 7.0 | 0.00 | 0.05 | 0.05 | 74 | 1009.6 |
| 20260509021817 | 47 | 218 | 2.0 | 7.0 | 0.00 | 0.05 | 0.05 | 74 | 1009.5 |
| 20260509021617 | 48 | 218 | 3.0 | 7.0 | 0.00 | 0.05 | 0.05 | 74 | 1009.5 |
| 20260509021417 | 47 | 216 | 3.0 | 7.0 | 0.00 | 0.05 | 0.05 | 74 | 1009.5 |
| 20260509021216 | 47 | 218 | 3.0 | 7.0 | 0.00 | 0.05 | 0.05 | 74 | 1009.5 |
| 20260509021016 | 47 | 215 | 4.0 | 7.0 | 0.00 | 0.05 | 0.05 | 74 | 1009.5 |
| 20260509020816 | 47 | 215 | 3.0 | 6.0 | 0.00 | 0.05 | 0.05 | 74 | 1009.6 |
| 20260509020615 | 47 | 213 | 2.0 | 8.0 | 0.00 | 0.05 | 0.05 | 73 | 1009.5 |
| 20260509020415 | 48 | 213 | 3.0 | 8.0 | 0.00 | 0.05 | 0.05 | 73 | 1009.5 |
| 20260509020215 | 48 | 225 | 3.0 | 8.0 | 0.00 | 0.05 | 0.05 | 73 | 1009.6 |
| 20260509020014 | 48 | 218 | 3.0 | 8.0 | 0.00 | 0.05 | 0.05 | 73 | 1009.6 |
| 20260509015814 | 48 | 221 | 3.0 | 8.0 | 0.00 | 0.05 | 0.05 | 73 | 1009.5 |
| 20260509015614 | 48 | 222 | 3.0 | 6.0 | 0.00 | 0.05 | 0.05 | 73 | 1009.6 |
| 20260509015414 | 48 | 217 | 3.0 | 6.0 | 0.00 | 0.05 | 0.05 | 72 | 1009.6 |
| 20260509015213 | 48 | 235 | 2.0 | 6.0 | 0.00 | 0.05 | 0.05 | 72 | 1009.6 |
| 20260509015013 | 48 | 232 | 2.0 | 5.0 | 0.00 | 0.05 | 0.05 | 72 | 1009.5 |
| 20260509014813 | 48 | 227 | 2.0 | 5.0 | 0.00 | 0.05 | 0.05 | 72 | 1009.4 |
| 20260509014612 | 48 | 219 | 2.0 | 4.0 | 0.00 | 0.05 | 0.05 | 72 | 1009.5 |
| 20260509014412 | 48 | 231 | 1.0 | 4.0 | 0.00 | 0.05 | 0.05 | 72 | 1009.4 |
| 20260509014212 | 48 | 229 | 2.0 | 4.0 | 0.00 | 0.05 | 0.05 | 72 | 1009.3 |
| 20260509014011 | 48 | 232 | 1.0 | 4.0 | 0.00 | 0.05 | 0.05 | 72 | 1009.4 |
| 20260509013811 | 48 | 233 | 1.0 | 5.0 | 0.00 | 0.05 | 0.05 | 72 | 1009.3 |
| 20260509013611 | 48 | 233 | 1.0 | 5.0 | 0.00 | 0.05 | 0.05 | 71 | 1009.3 |
| 20260509013411 | 48 | 228 | 1.0 | 5.0 | 0.00 | 0.05 | 0.05 | 71 | 1009.2 |
| 20260509013210 | 48 | 228 | 1.0 | 5.0 | 0.00 | 0.05 | 0.05 | 71 | 1009.2 |
| 20260509013010 | 48 | 233 | 1.0 | 5.0 | 0.00 | 0.05 | 0.05 | 71 | 1009.1 |
| 20260509012810 | 49 | 215 | 2.0 | 5.0 | 0.00 | 0.05 | 0.05 | 70 | 1009.1 |
| 20260509012609 | 49 | 222 | 2.0 | 5.0 | 0.00 | 0.05 | 0.05 | 70 | 1009.1 |
| 20260509012409 | 49 | 217 | 3.0 | 5.0 | 0.00 | 0.05 | 0.05 | 70 | 1009.1 |
| 20260509012209 | 49 | 238 | 1.0 | 5.0 | 0.00 | 0.05 | 0.05 | 70 | 1009.1 |
| 20260509012008 | 49 | 241 | 1.0 | 5.0 | 0.00 | 0.05 | 0.05 | 70 | 1009.1 |
| 20260509011808 | 49 | 240 | 1.0 | 6.0 | 0.00 | 0.05 | 0.05 | 70 | 1009.1 |
| 20260509011608 | 49 | 224 | 2.0 | 7.0 | 0.00 | 0.05 | 0.05 | 70 | 1009.0 |
| 20260509011408 | 49 | 222 | 2.0 | 7.0 | 0.00 | 0.05 | 0.05 | 69 | 1009.1 |
| 20260509011207 | 49 | 221 | 2.0 | 7.0 | 0.00 | 0.05 | 0.05 | 69 | 1009.1 |
| 20260509011007 | 49 | 220 | 3.0 | 7.0 | 0.00 | 0.05 | 0.05 | 69 | 1009.0 |
| 20260509010807 | 49 | 223 | 2.0 | 8.0 | 0.00 | 0.05 | 0.05 | 69 | 1009.0 |
| 20260509010606 | 49 | 223 | 2.0 | 8.0 | 0.00 | 0.05 | 0.05 | 68 | 1009.0 |
| 20260509010406 | 50 | 215 | 1.0 | 8.0 | 0.00 | 0.05 | 0.05 | 68 | 1009.1 |
| 20260509010206 | 50 | 216 | 2.0 | 8.0 | 0.00 | 0.05 | 0.05 | 68 | 1009.0 |
| 20260509010005 | 50 | 218 | 3.0 | 8.0 | 0.00 | 0.05 | 0.05 | 68 | 1009.0 |
| 20260509005805 | 50 | 228 | 2.0 | 7.0 | 0.00 | 0.05 | 0.05 | 68 | 1009.0 |
| 20260509005605 | 50 | 229 | 3.0 | 7.0 | 0.00 | 0.05 | 0.05 | 67 | 1009.0 |
| 20260509005405 | 50 | 224 | 3.0 | 7.0 | 0.00 | 0.05 | 0.05 | 67 | 1009.0 |
| 20260509005204 | 50 | 222 | 3.0 | 7.0 | 0.00 | 0.05 | 0.05 | 67 | 1009.0 |
| 20260509005004 | 50 | 225 | 3.0 | 7.0 | 0.00 | 0.05 | 0.05 | 66 | 1009.0 |
| 20260509004925 | 50 | 225 | 3.0 | 7.0 | 0.00 | 0.05 | 0.05 | 66 | 1009.0 |
| 20260509004724 | 50 | 220 | 3.0 | 8.0 | 0.00 | 0.05 | 0.05 | 66 | 1009.0 |
| 20260509004524 | 50 | 220 | 2.0 | 8.0 | 0.00 | 0.05 | 0.05 | 66 | 1009.1 |
| 20260509004324 | 50 | 218 | 3.0 | 8.0 | 0.00 | 0.05 | 0.05 | 65 | 1009.1 |
| 20260509004123 | 50 | 205 | 4.0 | 8.0 | 0.00 | 0.05 | 0.05 | 65 | 1009.0 |
| 20260509003923 | 51 | 222 | 4.0 | 8.0 | 0.00 | 0.05 | 0.05 | 65 | 1009.1 |
| 20260509003723 | 51 | 236 | 3.0 | 8.0 | 0.00 | 0.05 | 0.05 | 64 | 1009.0 |
| 20260509003523 | 51 | 231 | 3.0 | 8.0 | 0.00 | 0.05 | 0.05 | 64 | 1009.1 |
| 20260509003322 | 51 | 223 | 4.0 | 8.0 | 0.00 | 0.05 | 0.05 | 64 | 1009.1 |
| 20260509003122 | 51 | 226 | 3.0 | 7.0 | 0.00 | 0.05 | 0.05 | 64 | 1009.0 |
| 20260509002922 | 51 | 238 | 2.0 | 7.0 | 0.00 | 0.05 | 0.05 | 64 | 1009.1 |
| 20260509002721 | 51 | 233 | 3.0 | 7.0 | 0.00 | 0.05 | 0.05 | 63 | 1009.0 |
| 20260509002521 | 51 | 233 | 3.0 | 7.0 | 0.00 | 0.05 | 0.05 | 63 | 1009.1 |
| 20260509002321 | 51 | 234 | 3.0 | 7.0 | 0.00 | 0.05 | 0.05 | 62 | 1009.1 |
| 20260509002120 | 52 | 232 | 2.0 | 7.0 | 0.00 | 0.05 | 0.05 | 62 | 1009.1 |
| 20260509001920 | 52 | 228 | 3.0 | 7.0 | 0.00 | 0.05 | 0.05 | 62 | 1009.1 |
| 20260509001720 | 52 | 235 | 2.0 | 7.0 | 0.00 | 0.05 | 0.05 | 61 | 1009.1 |
| 20260509001520 | 52 | 226 | 2.0 | 8.0 | 0.00 | 0.05 | 0.05 | 61 | 1009.0 |
| 20260509001319 | 52 | 230 | 2.0 | 8.0 | 0.00 | 0.05 | 0.05 | 61 | 1009.0 |
| 20260509001119 | 52 | 217 | 2.0 | 8.0 | 0.00 | 0.05 | 0.05 | 61 | 1009.0 |
| 20260509000919 | 52 | 223 | 3.0 | 8.0 | 0.00 | 0.05 | 0.05 | 60 | 1009.1 |
| 20260509000718 | 52 | 237 | 2.0 | 8.0 | 0.00 | 0.05 | 0.05 | 60 | 1009.1 |
| 20260509000518 | 52 | 227 | 3.0 | 8.0 | 0.00 | 0.05 | 0.05 | 60 | 1009.0 |
| 20260509000318 | 53 | 225 | 3.0 | 8.0 | 0.00 | 0.05 | 0.05 | 60 | 1009.0 |
| 20260509000117 | 53 | 228 | 4.0 | 9.0 | 0.00 | 0.05 | 0.05 | 59 | 1009.0 |
| 20260508235917 | 53 | 226 | 3.0 | 9.0 | 0.00 | 0.05 | 0.05 | 59 | 1008.9 |
| 20260508235717 | 53 | 227 | 3.0 | 9.0 | 0.00 | 0.05 | 0.05 | 59 | 1008.9 |
| 20260508235517 | 53 | 224 | 5.0 | 12.0 | 0.00 | 0.05 | 0.05 | 59 | 1008.9 |
| 20260508235316 | 53 | 216 | 4.0 | 13.0 | 0.00 | 0.05 | 0.05 | 59 | 1008.9 |
| 20260508235116 | 53 | 227 | 4.0 | 13.0 | 0.00 | 0.05 | 0.05 | 59 | 1008.9 |
| 20260508234916 | 53 | 227 | 3.0 | 13.0 | 0.00 | 0.05 | 0.05 | 58 | 1008.9 |
| 20260508234715 | 53 | 226 | 5.0 | 13.0 | 0.00 | 0.05 | 0.05 | 58 | 1008.9 |
| 20260508234515 | 54 | 223 | 4.0 | 13.0 | 0.00 | 0.05 | 0.05 | 58 | 1008.9 |
| 20260508234315 | 54 | 220 | 3.0 | 11.0 | 0.00 | 0.05 | 0.05 | 58 | 1008.8 |
| 20260508234108 | 54 | 213 | 4.0 | 11.0 | 0.00 | 0.05 | 0.05 | 58 | 1008.9 |
| 20260508233908 | 54 | 214 | 5.0 | 11.0 | 0.00 | 0.05 | 0.05 | 57 | 1008.9 |
| 20260508233708 | 54 | 217 | 5.0 | 11.0 | 0.00 | 0.05 | 0.05 | 58 | 1008.7 |
| 20260508233507 | 54 | 230 | 3.0 | 11.0 | 0.00 | 0.05 | 0.05 | 58 | 1008.7 |
| 20260508233307 | 54 | 214 | 4.0 | 10.0 | 0.00 | 0.05 | 0.05 | 58 | 1008.7 |
| 20260508233107 | 54 | 224 | 4.0 | 10.0 | 0.00 | 0.05 | 0.05 | 57 | 1008.7 |
| 20260508232906 | 54 | 226 | 3.0 | 12.0 | 0.00 | 0.05 | 0.05 | 57 | 1008.7 |
| 20260508232706 | 54 | 217 | 4.0 | 12.0 | 0.00 | 0.05 | 0.05 | 57 | 1008.6 |
| 20260508232506 | 54 | 210 | 4.0 | 12.0 | 0.00 | 0.05 | 0.05 | 56 | 1008.6 |
| 20260508232307 | 54 | 216 | 5.0 | 13.0 | 0.00 | 0.05 | 0.05 | 56 | 1008.8 |
| 20260508232105 | 54 | 198 | 5.0 | 14.0 | 0.00 | 0.05 | 0.05 | 56 | 1008.8 |
| 20260508231905 | 54 | 209 | 5.0 | 14.0 | 0.00 | 0.05 | 0.05 | 56 | 1008.7 |
| 20260508231704 | 54 | 209 | 5.0 | 14.0 | 0.00 | 0.05 | 0.05 | 56 | 1008.8 |
| 20260508231504 | 54 | 210 | 6.0 | 14.0 | 0.00 | 0.05 | 0.05 | 56 | 1008.7 |
| 20260508231304 | 54 | 223 | 3.0 | 14.0 | 0.00 | 0.05 | 0.05 | 55 | 1008.7 |
| 20260508231104 | 54 | 226 | 4.0 | 14.0 | 0.00 | 0.05 | 0.05 | 55 | 1008.7 |
| 20260508230903 | 54 | 207 | 8.0 | 15.0 | 0.00 | 0.05 | 0.05 | 54 | 1008.7 |
| 20260508230703 | 55 | 212 | 8.0 | 15.0 | 0.00 | 0.05 | 0.05 | 53 | 1008.7 |
| 20260508230503 | 55 | 207 | 7.0 | 15.0 | 0.00 | 0.05 | 0.05 | 54 | 1008.7 |
| 20260508230302 | 55 | 213 | 6.0 | 15.0 | 0.00 | 0.05 | 0.05 | 54 | 1008.8 |
| 20260508225902 | 55 | 225 | 7.0 | 15.0 | 0.00 | 0.05 | 0.05 | 53 | 1008.8 |
| 20260508225701 | 56 | 227 | 6.0 | 15.0 | 0.00 | 0.05 | 0.05 | 52 | 1008.7 |
| 20260508225501 | 56 | 228 | 6.0 | 15.0 | 0.00 | 0.05 | 0.05 | 53 | 1008.7 |
| 20260508225301 | 56 | 228 | 6.0 | 15.0 | 0.00 | 0.05 | 0.05 | 52 | 1008.7 |
| 20260508225101 | 56 | 222 | 5.0 | 16.0 | 0.00 | 0.05 | 0.05 | 52 | 1008.7 |
| 20260508224900 | 56 | 223 | 4.0 | 16.0 | 0.00 | 0.05 | 0.05 | 54 | 1008.6 |
| 20260508224700 | 56 | 231 | 5.0 | 16.0 | 0.00 | 0.05 | 0.05 | 54 | 1008.7 |
| 20260508224500 | 56 | 222 | 7.0 | 16.0 | 0.00 | 0.05 | 0.05 | 54 | 1008.7 |
| 20260508224259 | 57 | 231 | 5.0 | 16.0 | 0.00 | 0.05 | 0.05 | 53 | 1008.7 |
| 20260508224059 | 57 | 236 | 4.0 | 16.0 | 0.00 | 0.05 | 0.05 | 53 | 1008.7 |
| 20260508223859 | 57 | 215 | 6.0 | 18.0 | 0.00 | 0.05 | 0.05 | 54 | 1008.6 |
| 20260508223658 | 57 | 216 | 8.0 | 18.0 | 0.00 | 0.05 | 0.05 | 53 | 1008.7 |
| 20260508223458 | 57 | 223 | 7.0 | 18.0 | 0.00 | 0.05 | 0.05 | 53 | 1008.7 |
| 20260508223258 | 57 | 222 | 8.0 | 18.0 | 0.00 | 0.05 | 0.05 | 52 | 1008.7 |
| 20260508223058 | 57 | 222 | 7.0 | 18.0 | 0.00 | 0.05 | 0.05 | 52 | 1008.6 |
| 20260508222857 | 57 | 227 | 6.0 | 17.0 | 0.00 | 0.05 | 0.05 | 52 | 1008.6 |
| 20260508222657 | 57 | 219 | 8.0 | 17.0 | 0.00 | 0.05 | 0.05 | 53 | 1008.6 |
| 20260508222457 | 57 | 213 | 8.0 | 14.0 | 0.00 | 0.05 | 0.05 | 52 | 1008.6 |
| 20260508222256 | 58 | 221 | 6.0 | 14.0 | 0.00 | 0.05 | 0.05 | 53 | 1008.6 |
| 20260508222057 | 58 | 228 | 6.0 | 14.0 | 0.00 | 0.05 | 0.05 | 52 | 1008.6 |
| 20260508221856 | 58 | 226 | 6.0 | 14.0 | 0.00 | 0.05 | 0.05 | 52 | 1008.6 |
| 20260508221655 | 58 | 214 | 7.0 | 14.0 | 0.00 | 0.05 | 0.05 | 53 | 1008.6 |
| 20260508221455 | 58 | 214 | 7.0 | 16.0 | 0.00 | 0.05 | 0.05 | 52 | 1008.6 |
| 20260508221255 | 58 | 215 | 7.0 | 18.0 | 0.00 | 0.05 | 0.05 | 52 | 1008.6 |
| 20260508221055 | 58 | 223 | 5.0 | 19.0 | 0.00 | 0.05 | 0.05 | 53 | 1008.6 |
| 20260508220854 | 58 | 219 | 7.0 | 19.0 | 0.00 | 0.05 | 0.05 | 53 | 1008.6 |
| 20260508220654 | 58 | 224 | 8.0 | 19.0 | 0.00 | 0.05 | 0.05 | 53 | 1008.6 |
| 20260508220454 | 58 | 215 | 9.0 | 19.0 | 0.00 | 0.05 | 0.05 | 52 | 1008.5 |
| 20260508220253 | 58 | 211 | 10.0 | 19.0 | 0.00 | 0.05 | 0.05 | 51 | 1008.6 |
| 20260508220053 | 58 | 215 | 8.0 | 16.0 | 0.00 | 0.05 | 0.05 | 51 | 1008.5 |
| 20260508215853 | 58 | 211 | 6.0 | 17.0 | 0.00 | 0.07 | 0.05 | 52 | 1008.5 |
| 20260508215652 | 58 | 220 | 6.0 | 17.0 | 0.00 | 0.07 | 0.05 | 53 | 1008.6 |
| 20260508215452 | 58 | 208 | 8.0 | 17.0 | 0.00 | 0.07 | 0.05 | 53 | 1008.6 |
| 20260508215252 | 58 | 209 | 9.0 | 17.0 | 0.00 | 0.07 | 0.05 | 53 | 1008.6 |
| 20260508215052 | 58 | 214 | 7.0 | 17.0 | 0.00 | 0.07 | 0.05 | 52 | 1008.6 |
| 20260508214851 | 58 | 218 | 5.0 | 17.0 | 0.00 | 0.07 | 0.05 | 53 | 1008.6 |
| 20260508214651 | 58 | 222 | 6.0 | 17.0 | 0.00 | 0.07 | 0.05 | 54 | 1008.6 |
| 20260508214451 | 58 | 216 | 7.0 | 20.0 | 0.00 | 0.07 | 0.05 | 55 | 1008.6 |
| 20260508214250 | 58 | 219 | 8.0 | 20.0 | 0.00 | 0.07 | 0.05 | 54 | 1008.6 |
| 20260508214050 | 58 | 209 | 8.0 | 20.0 | 0.00 | 0.07 | 0.05 | 54 | 1008.6 |
| 20260508213850 | 58 | 214 | 8.0 | 20.0 | 0.00 | 0.07 | 0.05 | 54 | 1008.5 |
| 20260508213649 | 58 | 210 | 9.0 | 20.0 | 0.00 | 0.07 | 0.05 | 53 | 1008.6 |
| 20260508213449 | 58 | 210 | 8.0 | 20.0 | 0.00 | 0.07 | 0.05 | 54 | 1008.7 |
| 20260508213249 | 58 | 212 | 6.0 | 17.0 | 0.00 | 0.07 | 0.05 | 53 | 1008.7 |
| 20260508213049 | 59 | 217 | 7.0 | 13.0 | 0.00 | 0.07 | 0.05 | 54 | 1008.6 |
| 20260508212848 | 59 | 223 | 5.0 | 13.0 | 0.00 | 0.07 | 0.05 | 54 | 1008.6 |
| 20260508212648 | 59 | 226 | 5.0 | 15.0 | 0.00 | 0.07 | 0.05 | 54 | 1008.6 |
| 20260508212448 | 59 | 227 | 4.0 | 15.0 | 0.00 | 0.07 | 0.05 | 54 | 1008.6 |
| 20260508212247 | 58 | 220 | 5.0 | 15.0 | 0.00 | 0.07 | 0.05 | 55 | 1008.6 |
| 20260508212047 | 58 | 224 | 6.0 | 18.0 | 0.00 | 0.07 | 0.05 | 55 | 1008.6 |
| 20260508211847 | 58 | 236 | 6.0 | 19.0 | 0.00 | 0.07 | 0.05 | 55 | 1008.6 |
| 20260508211646 | 58 | 230 | 5.0 | 19.0 | 0.00 | 0.07 | 0.05 | 55 | 1008.6 |
| 20260508211446 | 58 | 219 | 7.0 | 24.0 | 0.00 | 0.07 | 0.05 | 54 | 1008.6 |
| 20260508211246 | 58 | 217 | 8.0 | 24.0 | 0.00 | 0.07 | 0.05 | 54 | 1008.7 |
| 20260508211046 | 58 | 217 | 7.0 | 24.0 | 0.00 | 0.07 | 0.05 | 53 | 1008.6 |
| 20260508210845 | 58 | 221 | 9.0 | 24.0 | 0.00 | 0.07 | 0.05 | 54 | 1008.6 |
| 20260508210645 | 58 | 222 | 8.0 | 24.0 | 0.00 | 0.07 | 0.05 | 54 | 1008.6 |
| 20260508210445 | 58 | 220 | 6.0 | 13.0 | 0.00 | 0.07 | 0.05 | 55 | 1008.6 |
| 20260508210244 | 57 | 231 | 7.0 | 13.0 | 0.00 | 0.07 | 0.05 | 54 | 1008.7 |
| 20260508210044 | 57 | 226 | 6.0 | 13.0 | 0.00 | 0.07 | 0.05 | 56 | 1008.7 |
| 20260508205844 | 57 | 231 | 6.0 | 14.0 | 0.00 | 0.07 | 0.05 | 56 | 1008.7 |
| 20260508205643 | 56 | 214 | 7.0 | 14.0 | 0.00 | 0.07 | 0.05 | 56 | 1008.7 |
| 20260508205443 | 56 | 219 | 5.0 | 14.0 | 0.00 | 0.07 | 0.05 | 56 | 1008.7 |
| 20260508205243 | 57 | 213 | 7.0 | 14.0 | 0.00 | 0.07 | 0.05 | 55 | 1008.7 |
| 20260508205042 | 57 | 215 | 7.0 | 14.0 | 0.00 | 0.07 | 0.05 | 55 | 1008.7 |
| 20260508204842 | 58 | 219 | 7.0 | 14.0 | 0.00 | 0.07 | 0.05 | 54 | 1008.6 |
| 20260508204642 | 58 | 219 | 7.0 | 15.0 | 0.00 | 0.07 | 0.05 | 55 | 1008.7 |
| 20260508204442 | 57 | 213 | 7.0 | 16.0 | 0.00 | 0.07 | 0.05 | 55 | 1008.7 |
| 20260508204241 | 57 | 220 | 6.0 | 16.0 | 0.00 | 0.07 | 0.05 | 55 | 1008.7 |
| 20260508204041 | 58 | 225 | 6.0 | 16.0 | 0.00 | 0.07 | 0.05 | 55 | 1008.7 |
| 20260508203841 | 58 | 228 | 8.0 | 16.0 | 0.00 | 0.07 | 0.05 | 55 | 1008.6 |
| 20260508203640 | 58 | 229 | 7.0 | 16.0 | 0.00 | 0.07 | 0.05 | 54 | 1008.7 |
| 20260508203440 | 59 | 225 | 7.0 | 16.0 | 0.00 | 0.07 | 0.05 | 54 | 1008.6 |
| 20260508203240 | 59 | 221 | 7.0 | 16.0 | 0.00 | 0.07 | 0.05 | 55 | 1008.8 |
| 20260508203040 | 59 | 219 | 6.0 | 16.0 | 0.00 | 0.07 | 0.05 | 54 | 1008.8 |
| 20260508202839 | 59 | 225 | 5.0 | 13.0 | 0.00 | 0.07 | 0.05 | 55 | 1008.7 |
| 20260508202639 | 59 | 213 | 6.0 | 18.0 | 0.00 | 0.07 | 0.05 | 54 | 1008.8 |
| 20260508202439 | 59 | 218 | 6.0 | 18.0 | 0.00 | 0.07 | 0.05 | 54 | 1008.8 |
| 20260508202238 | 59 | 214 | 6.0 | 19.0 | 0.00 | 0.07 | 0.05 | 54 | 1008.8 |
| 20260508202038 | 59 | 217 | 8.0 | 20.0 | 0.00 | 0.07 | 0.05 | 55 | 1008.8 |
| 20260508201838 | 59 | 220 | 7.0 | 20.0 | 0.00 | 0.07 | 0.05 | 54 | 1008.8 |
| 20260508201637 | 59 | 219 | 6.0 | 20.0 | 0.00 | 0.07 | 0.05 | 56 | 1008.8 |
| 20260508201437 | 59 | 209 | 9.0 | 20.0 | 0.00 | 0.07 | 0.05 | 55 | 1008.8 |
| 20260508201237 | 59 | 218 | 7.0 | 16.0 | 0.00 | 0.07 | 0.05 | 55 | 1008.9 |
| 20260508201036 | 60 | 219 | 6.0 | 13.0 | 0.00 | 0.07 | 0.05 | 55 | 1008.9 |
| 20260508200836 | 60 | 226 | 5.0 | 13.0 | 0.00 | 0.07 | 0.05 | 55 | 1008.9 |
| 20260508200636 | 60 | 230 | 3.0 | 18.0 | 0.00 | 0.07 | 0.05 | 57 | 1008.9 |
| 20260508200436 | 59 | 223 | 3.0 | 18.0 | 0.00 | 0.07 | 0.05 | 56 | 1009.0 |
| 20260508200235 | 59 | 219 | 5.0 | 18.0 | 0.00 | 0.07 | 0.05 | 57 | 1008.9 |
| 20260508200035 | 58 | 253 | 4.0 | 18.0 | 0.00 | 0.07 | 0.05 | 56 | 1008.9 |
| 20260508195835 | 59 | 229 | 6.0 | 18.0 | 0.00 | 0.07 | 0.05 | 56 | 1009.0 |
| 20260508195634 | 59 | 221 | 6.0 | 18.0 | 0.00 | 0.07 | 0.05 | 59 | 1009.0 |
| 20260508195434 | 58 | 218 | 5.0 | 15.0 | 0.00 | 0.07 | 0.05 | 59 | 1009.0 |
| 20260508195234 | 58 | 214 | 5.0 | 15.0 | 0.00 | 0.07 | 0.05 | 60 | 1009.0 |
| 20260508195033 | 57 | 206 | 3.0 | 15.0 | 0.00 | 0.07 | 0.05 | 62 | 1009.0 |
| 20260508194833 | 56 | 194 | 5.0 | 15.0 | 0.00 | 0.07 | 0.05 | 62 | 1009.1 |
| 20260508194633 | 56 | 203 | 5.0 | 15.0 | 0.00 | 0.07 | 0.05 | 62 | 1009.1 |
| 20260508194433 | 56 | 210 | 5.0 | 12.0 | 0.00 | 0.07 | 0.05 | 62 | 1009.2 |
| 20260508194232 | 56 | 218 | 7.0 | 12.0 | 0.00 | 0.07 | 0.05 | 62 | 1009.2 |
| 20260508194032 | 56 | 219 | 6.0 | 15.0 | 0.00 | 0.07 | 0.05 | 62 | 1009.3 |
| 20260508193832 | 56 | 235 | 4.0 | 15.0 | 0.00 | 0.07 | 0.05 | 62 | 1009.2 |
| 20260508193631 | 56 | 223 | 5.0 | 15.0 | 0.00 | 0.07 | 0.05 | 62 | 1009.3 |
| 20260508193431 | 56 | 218 | 7.0 | 15.0 | 0.00 | 0.07 | 0.05 | 62 | 1009.3 |
| 20260508193231 | 56 | 211 | 7.0 | 18.0 | 0.00 | 0.07 | 0.05 | 61 | 1009.3 |
| 20260508193030 | 57 | 218 | 7.0 | 18.0 | 0.00 | 0.07 | 0.05 | 61 | 1009.4 |
| 20260508192830 | 57 | 208 | 8.0 | 19.0 | 0.00 | 0.07 | 0.05 | 61 | 1009.5 |
| 20260508192630 | 57 | 215 | 8.0 | 20.0 | 0.00 | 0.07 | 0.05 | 60 | 1009.5 |
| 20260508192430 | 58 | 221 | 7.0 | 20.0 | 0.00 | 0.07 | 0.05 | 60 | 1009.5 |
| 20260508192229 | 57 | 220 | 9.0 | 20.0 | 0.00 | 0.07 | 0.05 | 60 | 1009.5 |
| 20260508192029 | 57 | 217 | 10.0 | 20.0 | 0.00 | 0.07 | 0.05 | 59 | 1009.5 |
| 20260508191829 | 58 | 198 | 7.0 | 20.0 | 0.00 | 0.07 | 0.05 | 61 | 1009.5 |
| 20260508191628 | 58 | 252 | 4.0 | 13.0 | 0.00 | 0.07 | 0.05 | 63 | 1009.5 |
| 20260508191428 | 57 | 243 | 4.0 | 13.0 | 0.00 | 0.07 | 0.05 | 63 | 1009.6 |
| 20260508191228 | 56 | 237 | 5.0 | 13.0 | 0.00 | 0.07 | 0.05 | 62 | 1009.5 |
| 20260508191027 | 56 | 228 | 5.0 | 13.0 | 0.00 | 0.07 | 0.05 | 63 | 1009.6 |
| 20260508190827 | 56 | 229 | 4.0 | 12.0 | 0.00 | 0.07 | 0.05 | 64 | 1009.6 |
| 20260508190627 | 55 | 230 | 5.0 | 12.0 | 0.00 | 0.07 | 0.05 | 65 | 1009.7 |
| 20260508190427 | 56 | 230 | 5.0 | 15.0 | 0.00 | 0.07 | 0.05 | 64 | 1009.6 |
| 20260508190226 | 56 | 227 | 6.0 | 15.0 | 0.00 | 0.07 | 0.05 | 64 | 1009.7 |
| 20260508190026 | 56 | 224 | 6.0 | 15.0 | 0.00 | 0.07 | 0.05 | 64 | 1009.7 |
| 20260508185826 | 56 | 219 | 7.0 | 16.0 | 0.00 | 0.07 | 0.05 | 63 | 1009.6 |
| 20260508185625 | 57 | 215 | 6.0 | 16.0 | 0.00 | 0.07 | 0.05 | 62 | 1009.7 |
| 20260508185425 | 57 | 218 | 6.0 | 16.0 | 0.00 | 0.07 | 0.05 | 62 | 1009.7 |
| 20260508185225 | 58 | 222 | 6.0 | 16.0 | 0.00 | 0.07 | 0.05 | 63 | 1009.7 |
| 20260508185024 | 57 | 219 | 7.0 | 16.0 | 0.00 | 0.07 | 0.05 | 64 | 1009.7 |
| 20260508184824 | 56 | 219 | 6.0 | 16.0 | 0.00 | 0.07 | 0.05 | 65 | 1009.7 |
| 20260508184624 | 56 | 221 | 6.0 | 14.0 | 0.00 | 0.07 | 0.05 | 64 | 1009.8 |
| 20260508184424 | 56 | 227 | 5.0 | 19.0 | 0.00 | 0.07 | 0.05 | 63 | 1009.8 |
| 20260508184223 | 56 | 226 | 6.0 | 20.0 | 0.00 | 0.07 | 0.05 | 63 | 1009.8 |
| 20260508184023 | 56 | 226 | 7.0 | 20.0 | 0.00 | 0.07 | 0.05 | 64 | 1009.7 |
| 20260508183823 | 56 | 234 | 6.0 | 20.0 | 0.00 | 0.07 | 0.05 | 64 | 1009.8 |
| 20260508183622 | 57 | 230 | 8.0 | 20.0 | 0.00 | 0.07 | 0.05 | 64 | 1009.8 |
| 20260508183422 | 57 | 218 | 10.0 | 20.0 | 0.00 | 0.07 | 0.05 | 63 | 1009.8 |
| 20260508183222 | 58 | 217 | 8.0 | 17.0 | 0.00 | 0.07 | 0.05 | 62 | 1009.8 |
| 20260508183021 | 57 | 225 | 7.0 | 13.0 | 0.00 | 0.07 | 0.05 | 64 | 1009.9 |
| 20260508182821 | 57 | 217 | 5.0 | 13.0 | 0.00 | 0.07 | 0.05 | 66 | 1010.0 |
| 20260508182621 | 56 | 220 | 4.0 | 14.0 | 0.00 | 0.07 | 0.05 | 66 | 1010.0 |
| 20260508182421 | 55 | 227 | 3.0 | 15.0 | 0.00 | 0.07 | 0.05 | 66 | 1010.0 |
| 20260508182220 | 55 | 27 | 1.0 | 15.0 | 0.00 | 0.07 | 0.05 | 66 | 1010.0 |
| 20260508182020 | 55 | 240 | 5.0 | 15.0 | 0.00 | 0.07 | 0.05 | 66 | 1010.0 |
| 20260508181820 | 55 | 226 | 7.0 | 15.0 | 0.00 | 0.07 | 0.05 | 66 | 1010.1 |
| 20260508181619 | 56 | 231 | 5.0 | 15.0 | 0.00 | 0.07 | 0.05 | 65 | 1010.1 |
| 20260508181419 | 56 | 219 | 6.0 | 11.0 | 0.00 | 0.07 | 0.05 | 64 | 1010.1 |
| 20260508181219 | 56 | 232 | 4.0 | 11.0 | 0.00 | 0.07 | 0.05 | 62 | 1010.2 |
| 20260508181018 | 56 | 242 | 2.0 | 12.0 | 0.00 | 0.07 | 0.05 | 64 | 1010.1 |
| 20260508180818 | 56 | 231 | 2.0 | 12.0 | 0.00 | 0.07 | 0.05 | 65 | 1010.2 |
| 20260508180618 | 55 | 229 | 3.0 | 12.0 | 0.00 | 0.07 | 0.05 | 65 | 1010.2 |
| 20260508180418 | 55 | 222 | 5.0 | 12.0 | 0.00 | 0.07 | 0.05 | 65 | 1010.3 |
| 20260508180217 | 55 | 231 | 4.0 | 13.0 | 0.00 | 0.07 | 0.05 | 66 | 1010.3 |
| 20260508180017 | 56 | 232 | 5.0 | 14.0 | 0.00 | 0.07 | 0.05 | 66 | 1010.3 |
| 20260508175817 | 56 | 243 | 3.0 | 14.0 | 0.00 | 0.07 | 0.05 | 65 | 1010.3 |
| 20260508175616 | 56 | 233 | 4.0 | 14.0 | 0.00 | 0.07 | 0.05 | 66 | 1010.3 |
| 20260508175416 | 56 | 211 | 8.0 | 14.0 | 0.00 | 0.07 | 0.05 | 67 | 1010.5 |
| 20260508175216 | 56 | 216 | 8.0 | 12.0 | 0.00 | 0.07 | 0.05 | 66 | 1010.4 |
| 20260508175015 | 56 | 221 | 7.0 | 12.0 | 0.00 | 0.07 | 0.05 | 66 | 1010.4 |
| 20260508174815 | 56 | 240 | 5.0 | 12.0 | 0.00 | 0.07 | 0.05 | 66 | 1010.3 |
| 20260508174615 | 56 | 233 | 6.0 | 12.0 | 0.00 | 0.07 | 0.05 | 66 | 1010.3 |
| 20260508174414 | 56 | 232 | 5.0 | 12.0 | 0.00 | 0.07 | 0.05 | 64 | 1010.3 |
| 20260508174214 | 56 | 217 | 5.0 | 11.0 | 0.00 | 0.07 | 0.05 | 64 | 1010.4 |
| 20260508174014 | 56 | 217 | 5.0 | 15.0 | 0.00 | 0.07 | 0.05 | 63 | 1010.3 |
| 20260508173814 | 56 | 251 | 3.0 | 15.0 | 0.00 | 0.07 | 0.05 | 63 | 1010.4 |
| 20260508173613 | 57 | 267 | 2.0 | 15.0 | 0.00 | 0.07 | 0.05 | 63 | 1010.3 |
| 20260508173413 | 57 | 238 | 6.0 | 15.0 | 0.00 | 0.07 | 0.05 | 63 | 1010.4 |
| 20260508173213 | 57 | 214 | 8.0 | 15.0 | 0.00 | 0.07 | 0.05 | 63 | 1010.4 |
| 20260508173012 | 57 | 228 | 5.0 | 11.0 | 0.00 | 0.07 | 0.05 | 61 | 1010.3 |
| 20260508172812 | 57 | 241 | 5.0 | 11.0 | 0.00 | 0.07 | 0.05 | 62 | 1010.3 |
| 20260508172612 | 57 | 223 | 5.0 | 12.0 | 0.00 | 0.07 | 0.05 | 64 | 1010.3 |
| 20260508172412 | 57 | 238 | 4.0 | 12.0 | 0.00 | 0.07 | 0.05 | 63 | 1010.3 |
| 20260508172211 | 57 | 232 | 5.0 | 12.0 | 0.00 | 0.07 | 0.05 | 62 | 1010.4 |
| 20260508172011 | 57 | 218 | 4.0 | 16.0 | 0.00 | 0.07 | 0.05 | 63 | 1010.4 |
| 20260508171811 | 57 | 211 | 5.0 | 17.0 | 0.00 | 0.07 | 0.05 | 63 | 1010.5 |
| 20260508171610 | 57 | 238 | 2.0 | 17.0 | 0.00 | 0.07 | 0.05 | 61 | 1010.5 |
| 20260508171410 | 58 | 230 | 2.0 | 17.0 | 0.00 | 0.07 | 0.05 | 62 | 1010.5 |
| 20260508171210 | 58 | 207 | 6.0 | 17.0 | 0.00 | 0.07 | 0.05 | 60 | 1010.6 |
| 20260508171009 | 58 | 216 | 3.0 | 9.0 | 0.00 | 0.07 | 0.05 | 54 | 1010.5 |
| 20260508170809 | 58 | 207 | 4.0 | 8.0 | 0.00 | 0.07 | 0.05 | 51 | 1010.6 |
| 20260508170609 | 58 | 87 | 2.0 | 10.0 | 0.00 | 0.07 | 0.05 | 51 | 1010.5 |
| 20260508170409 | 58 | 196 | 3.0 | 10.0 | 0.00 | 0.07 | 0.05 | 50 | 1010.5 |
| 20260508170208 | 58 | 179 | 2.0 | 12.0 | 0.00 | 0.07 | 0.05 | 50 | 1010.5 |